Time,TemperatureF,DewpointF,PressureIn,WindDirection,WindDirectionDegrees,WindSpeedMPH,WindSpeedGustMPH,Humidity,HourlyPrecipIn,Conditions,Clouds,dailyrainin,SoftwareType,DateUTC
2013-04-26 00:02:00,32.2,22.1,30.25,WSW,241,0.0,0.0,66,0.00,RA,,0.00,WeatherDisplay:10.37,2013-04-26 05:02:00,
2013-04-26 00:03:00,32.2,22.1,30.25,WSW,241,0.0,0.0,66,0.00,RA,,0.00,WeatherDisplay:10.37,2013-04-26 05:03:00,
2013-04-26 00:04:00,32.2,22.1,30.25,WSW,241,0.0,0.0,66,0.00,RA,,0.00,WeatherDisplay:10.37,2013-04-26 05:04:00,
2013-04-26 00:07:00,32.1,22.4,30.25,WSW,241,0.0,0.0,67,0.00,RA,,0.00,WeatherDisplay:10.37,2013-04-26 05:07:00,
2013-04-26 00:08:00,32.0,22.3,30.25,WSW,241,0.0,0.0,67,0.00,RA,,0.00,WeatherDisplay:10.37,2013-04-26 05:08:00,
2013-04-26 00:10:00,32.0,22.3,30.25,WSW,241,0.0,0.0,67,0.00,CLR,,0.00,WeatherDisplay:10.37,2013-04-26 05:10:00,
2013-04-26 00:13:00,31.9,22.2,30.25,WSW,241,0.0,0.0,67,0.00,CLR,,0.00,WeatherDisplay:10.37,2013-04-26 05:13:00,
2013-04-26 00:14:00,31.9,22.2,30.25,WSW,241,0.0,0.0,67,0.00,CLR,,0.00,WeatherDisplay:10.37,2013-04-26 05:14:00,
2013-04-26 00:15:00,31.9,22.5,30.25,WSW,241,0.0,0.0,68,0.00,CLR,,0.00,WeatherDisplay:10.37,2013-04-26 05:15:00,
2013-04-26 00:18:00,32.0,22.6,30.25,WSW,241,0.0,0.0,68,0.00,CLR,,0.00,WeatherDisplay:10.37,2013-04-26 05:18:00,
2013-04-26 00:19:00,31.9,22.5,30.25,WSW,241,0.0,0.0,68,0.00,CLR,,0.00,WeatherDisplay:10.37,2013-04-26 05:19:00,
2013-04-26 00:20:00,31.8,22.4,30.25,WSW,241,0.0,0.0,68,0.00,CLR,,0.00,WeatherDisplay:10.37,2013-04-26 05:20:00,
2013-04-26 00:23:00,31.9,22.9,30.25,WSW,241,0.0,0.0,69,0.00,CLR,,0.00,WeatherDisplay:10.37,2013-04-26 05:23:00,
2013-04-26 00:24:00,31.9,22.9,30.25,WSW,241,0.0,0.0,69,0.00,CLR,,0.00,WeatherDisplay:10.37,2013-04-26 05:24:00,
2013-04-26 00:25:00,31.8,22.8,30.25,WSW,241,0.0,0.0,69,0.00,CLR,,0.00,WeatherDisplay:10.37,2013-04-26 05:25:00,
2013-04-26 00:28:00,31.8,22.8,30.25,WSW,241,0.0,0.0,69,0.00,CLR,,0.00,WeatherDisplay:10.37,2013-04-26 05:28:00,
2013-04-26 00:29:00,31.9,22.9,30.25,WSW,241,0.0,0.0,69,0.00,CLR,,0.00,WeatherDisplay:10.37,2013-04-26 05:29:00,
2013-04-26 00:30:00,31.8,22.8,30.25,WSW,241,0.0,0.0,69,0.00,CLR,,0.00,WeatherDisplay:10.37,2013-04-26 05:30:00,
2013-04-26 00:33:00,31.8,22.8,30.25,WSW,241,0.0,0.0,69,0.00,CLR,,0.00,WeatherDisplay:10.37,2013-04-26 05:33:00,
2013-04-26 00:34:00,31.8,22.8,30.25,WSW,241,0.0,0.0,69,0.00,CLR,,0.00,WeatherDisplay:10.37,2013-04-26 05:34:00,
2013-04-26 00:35:00,31.8,22.8,30.25,WSW,241,0.0,0.0,69,0.00,CLR,,0.00,WeatherDisplay:10.37,2013-04-26 05:35:00,
2013-04-26 00:38:00,31.8,22.8,30.25,WSW,241,0.0,0.0,69,0.00,CLR,,0.00,WeatherDisplay:10.37,2013-04-26 05:38:00,
2013-04-26 00:39:00,31.8,22.8,30.25,WSW,241,0.0,0.0,69,0.00,CLR,,0.00,WeatherDisplay:10.37,2013-04-26 05:39:00,
2013-04-26 00:40:00,31.9,22.9,30.25,WSW,241,0.0,0.0,69,0.00,CLR,,0.00,WeatherDisplay:10.37,2013-04-26 05:40:00,
2013-04-26 00:44:00,31.8,22.8,30.25,WSW,241,0.0,0.0,69,0.00,CLR,,0.00,WeatherDisplay:10.37,2013-04-26 05:44:00,
2013-04-26 00:45:00,31.8,22.8,30.25,WSW,241,0.0,0.0,69,0.00,CLR,,0.00,WeatherDisplay:10.37,2013-04-26 05:45:00,
2013-04-26 00:49:00,31.8,22.8,30.25,WSW,241,0.0,0.0,69,0.00,CLR,,0.00,WeatherDisplay:10.37,2013-04-26 05:49:00,
2013-04-26 00:50:00,31.8,22.8,30.24,WSW,241,0.0,0.0,69,0.00,CLR,,0.00,WeatherDisplay:10.37,2013-04-26 05:50:00,
2013-04-26 00:51:00,31.8,22.8,30.25,WSW,241,0.0,0.0,69,0.00,CLR,,0.00,WeatherDisplay:10.37,2013-04-26 05:51:00,
2013-04-26 00:54:00,31.8,22.8,30.25,WSW,241,0.0,0.0,69,0.00,CLR,,0.00,WeatherDisplay:10.37,2013-04-26 05:54:00,
2013-04-26 00:55:00,31.8,22.8,30.25,WSW,241,0.0,0.0,69,0.00,CLR,,0.00,WeatherDisplay:10.37,2013-04-26 05:55:00,
2013-04-26 00:56:00,31.8,22.8,30.25,WSW,241,0.0,0.0,69,0.00,CLR,,0.00,WeatherDisplay:10.37,2013-04-26 05:56:00,
2013-04-26 00:59:00,31.8,22.8,30.25,WSW,241,0.0,0.0,69,0.00,CLR,,0.00,WeatherDisplay:10.37,2013-04-26 05:59:00,
2013-04-26 01:00:00,31.8,22.8,30.25,WSW,241,0.0,0.0,69,0.00,CLR,,0.00,WeatherDisplay:10.37,2013-04-26 06:00:00,
2013-04-26 01:01:00,31.8,22.8,30.24,WSW,241,0.0,0.0,69,0.00,CLR,,0.00,WeatherDisplay:10.37,2013-04-26 06:01:00,
2013-04-26 01:04:00,31.8,23.1,30.24,SSW,192,1.1,3.5,70,0.00,CLR,,0.00,WeatherDisplay:10.37,2013-04-26 06:04:00,
2013-04-26 01:05:00,31.9,23.2,30.24,SSW,192,0.0,1.1,70,0.00,CLR,,0.00,WeatherDisplay:10.37,2013-04-26 06:05:00,
2013-04-26 01:07:00,32.0,23.3,30.24,SSW,192,0.0,0.0,70,0.00,CLR,,0.00,WeatherDisplay:10.37,2013-04-26 06:07:00,
2013-04-26 01:09:00,32.1,23.4,30.24,South,179,0.3,2.3,70,0.00,CLR,,0.00,WeatherDisplay:10.37,2013-04-26 06:09:00,
2013-04-26 01:10:00,32.2,23.5,30.24,South,179,0.0,2.3,70,0.00,CLR,,0.00,WeatherDisplay:10.37,2013-04-26 06:10:00,
2013-04-26 01:11:00,32.2,23.5,30.24,South,179,0.3,1.5,70,0.00,CLR,,0.00,WeatherDisplay:10.37,2013-04-26 06:11:00,
2013-04-26 01:12:00,32.3,23.6,30.24,South,179,0.0,1.1,70,0.00,CLR,,0.00,WeatherDisplay:10.37,2013-04-26 06:12:00,
2013-04-26 01:14:00,32.6,23.9,30.25,South,179,0.0,1.1,70,0.00,CLR,,0.00,WeatherDisplay:10.37,2013-04-26 06:14:00,
2013-04-26 01:15:00,32.5,23.8,30.25,South,179,0.0,0.0,70,0.00,CLR,,0.00,WeatherDisplay:10.37,2013-04-26 06:15:00,
2013-04-26 01:16:00,32.6,23.9,30.24,South,179,0.0,0.0,70,0.00,CLR,,0.00,WeatherDisplay:10.37,2013-04-26 06:16:00,
2013-04-26 01:18:00,32.7,23.6,30.24,South,179,0.0,0.0,69,0.00,CLR,,0.00,WeatherDisplay:10.37,2013-04-26 06:18:00,
2013-04-26 01:19:00,32.8,23.7,30.24,SSE,158,1.8,3.5,69,0.00,CLR,,0.00,WeatherDisplay:10.37,2013-04-26 06:19:00,
2013-04-26 01:20:00,32.8,23.7,30.24,SSW,205,1.5,3.5,69,0.00,CLR,,0.00,WeatherDisplay:10.37,2013-04-26 06:20:00,
2013-04-26 01:21:00,32.9,23.8,30.24,SSW,205,0.9,2.3,69,0.00,CLR,,0.00,WeatherDisplay:10.37,2013-04-26 06:21:00,
2013-04-26 01:22:00,32.9,23.8,30.25,SSW,205,0.0,0.0,69,0.00,CLR,,0.00,WeatherDisplay:10.37,2013-04-26 06:22:00,
2013-04-26 01:23:00,33.0,23.9,30.24,SSW,205,0.0,0.0,69,0.00,CLR,,0.00,WeatherDisplay:10.37,2013-04-26 06:23:00,
2013-04-26 01:25:00,33.1,24.0,30.24,South,185,0.4,3.5,69,0.00,CLR,,0.00,WeatherDisplay:10.37,2013-04-26 06:25:00,
2013-04-26 01:26:00,33.2,24.1,30.24,South,185,0.0,0.0,69,0.00,CLR,,0.00,WeatherDisplay:10.37,2013-04-26 06:26:00,
2013-04-26 01:27:00,33.3,24.2,30.24,South,185,0.0,0.0,69,0.00,CLR,,0.00,WeatherDisplay:10.37,2013-04-26 06:27:00,
2013-04-26 01:28:00,33.4,24.3,30.24,SSE,165,0.7,3.5,69,0.00,CLR,,0.00,WeatherDisplay:10.37,2013-04-26 06:28:00,
2013-04-26 01:30:00,33.4,24.0,30.24,SSE,155,1.8,4.6,68,0.00,CLR,,0.00,WeatherDisplay:10.37,2013-04-26 06:30:00,
2013-04-26 01:31:00,33.5,24.1,30.24,SSE,155,0.0,0.0,68,0.00,CLR,,0.00,WeatherDisplay:10.37,2013-04-26 06:31:00,
2013-04-26 01:32:00,33.7,24.3,30.24,SSE,155,0.0,0.0,68,0.00,CLR,,0.00,WeatherDisplay:10.37,2013-04-26 06:32:00,
2013-04-26 01:33:00,33.7,24.3,30.24,SSE,155,0.0,0.0,68,0.00,CLR,,0.00,WeatherDisplay:10.37,2013-04-26 06:33:00,
2013-04-26 01:35:00,33.8,24.4,30.23,SSE,155,0.0,0.0,68,0.00,CLR,,0.00,WeatherDisplay:10.37,2013-04-26 06:35:00,
2013-04-26 01:36:00,33.8,24.0,30.24,SSE,155,0.0,0.0,67,0.00,CLR,,0.00,WeatherDisplay:10.37,2013-04-26 06:36:00,
2013-04-26 01:37:00,33.9,24.1,30.24,SSE,155,0.0,0.0,67,0.00,CLR,,0.00,WeatherDisplay:10.37,2013-04-26 06:37:00,
2013-04-26 01:39:00,33.9,24.1,30.24,SSE,155,0.0,0.0,67,0.00,CLR,,0.00,WeatherDisplay:10.37,2013-04-26 06:39:00,
2013-04-26 01:40:00,34.0,24.2,30.24,SSE,155,0.0,0.0,67,0.00,CLR,,0.00,WeatherDisplay:10.37,2013-04-26 06:40:00,
2013-04-26 01:42:00,34.0,24.2,30.23,SSE,155,0.0,0.0,67,0.00,CLR,,0.00,WeatherDisplay:10.37,2013-04-26 06:42:00,
2013-04-26 01:44:00,34.2,24.0,30.23,SSE,167,0.7,3.5,66,0.00,CLR,,0.00,WeatherDisplay:10.37,2013-04-26 06:44:00,
2013-04-26 01:45:00,34.3,24.1,30.23,SE,137,0.8,1.1,66,0.00,CLR,,0.00,WeatherDisplay:10.37,2013-04-26 06:45:00,
2013-04-26 01:46:00,34.3,24.1,30.23,SE,137,0.6,3.5,66,0.00,CLR,,0.00,WeatherDisplay:10.37,2013-04-26 06:46:00,
2013-04-26 01:47:00,34.3,24.1,30.23,South,172,0.0,2.3,66,0.00,CLR,,0.00,WeatherDisplay:10.37,2013-04-26 06:47:00,
2013-04-26 01:48:00,34.3,24.1,30.24,SSE,161,0.6,2.1,66,0.00,CLR,,0.00,WeatherDisplay:10.37,2013-04-26 06:48:00,
2013-04-26 01:49:00,34.4,24.2,30.23,SSE,161,0.0,3.5,66,0.00,CLR,,0.00,WeatherDisplay:10.37,2013-04-26 06:49:00,
2013-04-26 01:50:00,34.5,23.9,30.23,South,191,0.1,2.5,65,0.00,CLR,,0.00,WeatherDisplay:10.37,2013-04-26 06:50:00,
2013-04-26 01:51:00,34.4,23.8,30.23,South,176,0.9,3.5,65,0.00,CLR,,0.00,WeatherDisplay:10.37,2013-04-26 06:51:00,
2013-04-26 01:52:00,34.4,23.8,30.23,South,176,0.0,2.3,65,0.00,CLR,,0.00,WeatherDisplay:10.37,2013-04-26 06:52:00,
2013-04-26 01:53:00,34.4,23.8,30.23,South,176,0.0,0.0,65,0.00,CLR,,0.00,WeatherDisplay:10.37,2013-04-26 06:53:00,
2013-04-26 01:54:00,34.5,23.9,30.23,South,176,0.0,0.0,65,0.00,CLR,,0.00,WeatherDisplay:10.37,2013-04-26 06:54:00,
2013-04-26 01:55:00,34.6,24.0,30.23,South,176,0.0,0.0,65,0.00,CLR,,0.00,WeatherDisplay:10.37,2013-04-26 06:55:00,
2013-04-26 01:56:00,34.4,23.8,30.23,South,176,0.0,0.0,65,0.00,CLR,,0.00,WeatherDisplay:10.37,2013-04-26 06:56:00,
2013-04-26 01:57:00,34.4,23.8,30.23,South,176,0.0,0.0,65,0.00,CLR,,0.00,WeatherDisplay:10.37,2013-04-26 06:57:00,
2013-04-26 01:58:00,34.5,23.6,30.23,South,176,0.0,0.0,64,0.00,CLR,,0.00,WeatherDisplay:10.37,2013-04-26 06:58:00,
2013-04-26 01:59:00,34.5,23.6,30.23,South,179,0.7,0.0,64,0.00,CLR,,0.00,WeatherDisplay:10.37,2013-04-26 06:59:00,
2013-04-26 02:00:00,34.5,23.6,30.23,SSE,162,0.2,3.5,64,0.00,CLR,,0.00,WeatherDisplay:10.37,2013-04-26 07:00:00,
2013-04-26 02:01:00,34.5,23.6,30.23,SSE,162,0.3,1.1,64,0.00,CLR,,0.00,WeatherDisplay:10.37,2013-04-26 07:01:00,
2013-04-26 02:03:00,34.5,23.6,30.23,SSW,202,0.7,2.3,64,0.00,CLR,,0.00,WeatherDisplay:10.37,2013-04-26 07:03:00,
2013-04-26 02:04:00,34.4,23.5,30.23,SSW,202,0.0,2.3,64,0.00,CLR,,0.00,WeatherDisplay:10.37,2013-04-26 07:04:00,
2013-04-26 02:05:00,34.5,23.6,30.23,SSW,202,0.0,0.0,64,0.00,CLR,,0.00,WeatherDisplay:10.37,2013-04-26 07:05:00,
2013-04-26 02:06:00,34.5,23.6,30.23,SSE,147,1.8,3.5,64,0.00,CLR,,0.00,WeatherDisplay:10.37,2013-04-26 07:06:00,
2013-04-26 02:08:00,34.4,23.5,30.23,South,176,0.2,3.5,64,0.00,CLR,,0.00,WeatherDisplay:10.37,2013-04-26 07:08:00,
2013-04-26 02:09:00,34.5,23.6,30.23,South,176,0.2,1.1,64,0.00,CLR,,0.00,WeatherDisplay:10.37,2013-04-26 07:09:00,
2013-04-26 02:10:00,34.5,23.6,30.23,South,176,0.0,0.0,64,0.00,CLR,,0.00,WeatherDisplay:10.37,2013-04-26 07:10:00,
2013-04-26 02:11:00,34.4,23.5,30.23,South,176,0.0,0.0,64,0.00,CLR,,0.00,WeatherDisplay:10.37,2013-04-26 07:11:00,
2013-04-26 02:13:00,34.5,23.6,30.23,South,176,0.0,0.0,64,0.00,CLR,,0.00,WeatherDisplay:10.37,2013-04-26 07:13:00,
2013-04-26 02:14:00,34.5,23.6,30.23,South,176,0.0,0.0,64,0.00,CLR,,0.00,WeatherDisplay:10.37,2013-04-26 07:14:00,
2013-04-26 02:15:00,34.4,23.5,30.23,South,176,0.0,0.0,64,0.00,CLR,,0.00,WeatherDisplay:10.37,2013-04-26 07:15:00,
2013-04-26 02:16:00,34.4,23.5,30.23,South,176,0.0,0.0,64,0.00,CLR,,0.00,WeatherDisplay:10.37,2013-04-26 07:16:00,
2013-04-26 02:19:00,34.6,23.7,30.23,SW,215,0.0,0.0,64,0.00,CLR,,0.00,WeatherDisplay:10.37,2013-04-26 07:19:00,
2013-04-26 02:20:00,34.4,23.5,30.23,SW,215,0.0,0.0,64,0.00,CLR,,0.00,WeatherDisplay:10.37,2013-04-26 07:20:00,
2013-04-26 02:21:00,34.5,23.6,30.23,SW,215,0.0,0.0,64,0.00,CLR,,0.00,WeatherDisplay:10.37,2013-04-26 07:21:00,
2013-04-26 02:24:00,34.5,23.6,30.23,SSW,192,0.5,2.8,64,0.00,CLR,,0.00,WeatherDisplay:10.37,2013-04-26 07:24:00,
2013-04-26 02:25:00,34.6,23.7,30.23,SSW,193,0.2,1.1,64,0.00,CLR,,0.00,WeatherDisplay:10.37,2013-04-26 07:25:00,
2013-04-26 02:26:00,34.6,23.7,30.23,SSW,193,0.0,1.1,64,0.00,CLR,,0.00,WeatherDisplay:10.37,2013-04-26 07:26:00,
2013-04-26 02:29:00,34.7,23.8,30.23,SSW,193,0.0,0.0,64,0.00,CLR,,0.00,WeatherDisplay:10.37,2013-04-26 07:29:00,
2013-04-26 02:30:00,34.7,23.8,30.23,SSW,193,0.0,0.0,64,0.00,CLR,,0.00,WeatherDisplay:10.37,2013-04-26 07:30:00,
2013-04-26 02:31:00,34.8,23.9,30.23,SSW,193,0.0,0.0,64,0.00,CLR,,0.00,WeatherDisplay:10.37,2013-04-26 07:31:00,
2013-04-26 02:32:00,34.7,23.8,30.23,SSW,193,0.0,0.0,64,0.00,CLR,,0.00,WeatherDisplay:10.37,2013-04-26 07:32:00,
2013-04-26 02:34:00,34.9,23.6,30.23,SSW,193,0.0,0.0,63,0.00,CLR,,0.00,WeatherDisplay:10.37,2013-04-26 07:34:00,
2013-04-26 02:35:00,34.8,23.5,30.23,SSW,193,0.0,0.0,63,0.00,CLR,,0.00,WeatherDisplay:10.37,2013-04-26 07:35:00,
2013-04-26 02:36:00,34.9,23.6,30.23,SSW,193,0.0,0.0,63,0.00,CLR,,0.00,WeatherDisplay:10.37,2013-04-26 07:36:00,
2013-04-26 02:37:00,34.8,23.5,30.23,SSW,193,0.0,0.0,63,0.00,CLR,,0.00,WeatherDisplay:10.37,2013-04-26 07:37:00,
2013-04-26 02:39:00,34.8,23.5,30.23,SSW,193,0.0,0.0,63,0.00,CLR,,0.00,WeatherDisplay:10.37,2013-04-26 07:39:00,
2013-04-26 02:40:00,34.8,23.5,30.23,SSW,193,0.0,0.0,63,0.00,CLR,,0.00,WeatherDisplay:10.37,2013-04-26 07:40:00,
2013-04-26 02:41:00,34.9,23.6,30.23,SSW,193,0.0,0.0,63,0.00,CLR,,0.00,WeatherDisplay:10.37,2013-04-26 07:41:00,
2013-04-26 02:42:00,34.9,23.6,30.22,SSW,193,0.0,0.0,63,0.00,CLR,,0.00,WeatherDisplay:10.37,2013-04-26 07:42:00,
2013-04-26 02:45:00,35.0,23.7,30.23,SSW,193,0.0,0.0,63,0.00,CLR,,0.00,WeatherDisplay:10.37,2013-04-26 07:45:00,
2013-04-26 02:46:00,35.0,23.7,30.23,SSW,199,1.8,3.5,63,0.00,CLR,,0.00,WeatherDisplay:10.37,2013-04-26 07:46:00,
2013-04-26 02:47:00,35.0,23.7,30.23,SSW,199,0.2,3.5,63,0.00,CLR,,0.00,WeatherDisplay:10.37,2013-04-26 07:47:00,
2013-04-26 02:50:00,35.1,23.8,30.23,SW,223,0.1,2.3,63,0.00,CLR,,0.00,WeatherDisplay:10.37,2013-04-26 07:50:00,
2013-04-26 02:51:00,35.0,23.7,30.23,SW,223,0.0,1.1,63,0.00,CLR,,0.00,WeatherDisplay:10.37,2013-04-26 07:51:00,
2013-04-26 02:52:00,35.1,23.8,30.23,SW,223,0.0,0.0,63,0.00,CLR,,0.00,WeatherDisplay:10.37,2013-04-26 07:52:00,
2013-04-26 02:55:00,35.1,23.8,30.23,SSE,152,1.2,3.5,63,0.00,CLR,,0.00,WeatherDisplay:10.37,2013-04-26 07:55:00,
2013-04-26 02:56:00,35.2,23.9,30.23,South,185,0.3,3.5,63,0.00,CLR,,0.00,WeatherDisplay:10.37,2013-04-26 07:56:00,
2013-04-26 02:57:00,35.1,23.8,30.23,SSE,160,1.1,2.3,63,0.00,CLR,,0.00,WeatherDisplay:10.37,2013-04-26 07:57:00,
2013-04-26 02:58:00,35.1,23.8,30.23,SW,215,0.6,2.3,63,0.00,CLR,,0.00,WeatherDisplay:10.37,2013-04-26 07:58:00,
2013-04-26 03:00:00,35.2,23.5,30.23,SSE,152,0.6,5.8,62,0.00,CLR,,0.00,WeatherDisplay:10.37,2013-04-26 08:00:00,
2013-04-26 03:01:00,35.1,23.4,30.23,SSE,152,0.0,5.8,62,0.00,CLR,,0.00,WeatherDisplay:10.37,2013-04-26 08:01:00,
2013-04-26 03:02:00,35.2,23.5,30.23,SSE,152,0.0,0.0,62,0.00,CLR,,0.00,WeatherDisplay:10.37,2013-04-26 08:02:00,
2013-04-26 03:03:00,35.3,23.6,30.23,SW,224,0.6,0.0,62,0.00,CLR,,0.00,WeatherDisplay:10.37,2013-04-26 08:03:00,
2013-04-26 03:06:00,35.2,23.5,30.23,South,191,0.0,0.0,62,0.00,CLR,,0.00,WeatherDisplay:10.37,2013-04-26 08:06:00,
2013-04-26 03:07:00,35.3,23.6,30.23,South,185,0.9,3.5,62,0.00,CLR,,0.00,WeatherDisplay:10.37,2013-04-26 08:07:00,
2013-04-26 03:08:00,35.4,23.7,30.23,South,185,0.0,3.5,62,0.00,CLR,,0.00,WeatherDisplay:10.37,2013-04-26 08:08:00,
2013-04-26 03:11:00,35.4,23.7,30.23,SSW,196,0.0,0.0,62,0.00,CLR,,0.00,WeatherDisplay:10.37,2013-04-26 08:11:00,
2013-04-26 03:12:00,35.4,23.7,30.23,SSW,196,0.0,0.0,62,0.00,CLR,,0.00,WeatherDisplay:10.37,2013-04-26 08:12:00,
2013-04-26 03:13:00,35.4,23.7,30.23,SSW,196,0.0,0.0,62,0.00,CLR,,0.00,WeatherDisplay:10.37,2013-04-26 08:13:00,
2013-04-26 03:16:00,35.5,23.8,30.23,SW,217,0.0,2.3,62,0.00,CLR,,0.00,WeatherDisplay:10.37,2013-04-26 08:16:00,
2013-04-26 03:17:00,35.4,23.7,30.23,SW,217,0.0,0.0,62,0.00,CLR,,0.00,WeatherDisplay:10.37,2013-04-26 08:17:00,
2013-04-26 03:18:00,35.4,23.7,30.24,SW,217,0.0,0.0,62,0.00,CLR,,0.00,WeatherDisplay:10.37,2013-04-26 08:18:00,
2013-04-26 03:21:00,35.3,23.6,30.23,SW,217,0.0,0.0,62,0.00,CLR,,0.00,WeatherDisplay:10.37,2013-04-26 08:21:00,
2013-04-26 03:22:00,35.5,23.8,30.23,SW,217,0.0,0.0,62,0.00,CLR,,0.00,WeatherDisplay:10.37,2013-04-26 08:22:00,
2013-04-26 03:23:00,35.4,23.3,30.23,SW,217,0.0,0.0,61,0.00,CLR,,0.00,WeatherDisplay:10.37,2013-04-26 08:23:00,
2013-04-26 03:27:00,35.4,23.7,30.24,SW,217,0.0,0.0,62,0.00,CLR,,0.00,WeatherDisplay:10.37,2013-04-26 08:27:00,
2013-04-26 03:28:00,35.3,23.6,30.24,SW,217,0.0,0.0,62,0.00,CLR,,0.00,WeatherDisplay:10.37,2013-04-26 08:28:00,
2013-04-26 03:29:00,35.3,23.6,30.23,SW,217,0.0,0.0,62,0.00,CLR,,0.00,WeatherDisplay:10.37,2013-04-26 08:29:00,
2013-04-26 03:32:00,35.2,23.5,30.23,SSW,213,0.2,0.0,62,0.00,CLR,,0.00,WeatherDisplay:10.37,2013-04-26 08:32:00,
2013-04-26 03:33:00,35.1,23.4,30.23,SSW,213,0.2,1.1,62,0.00,CLR,,0.00,WeatherDisplay:10.37,2013-04-26 08:33:00,
2013-04-26 03:34:00,35.0,23.3,30.24,SSW,213,0.0,0.0,62,0.00,CLR,,0.00,WeatherDisplay:10.37,2013-04-26 08:34:00,
2013-04-26 03:37:00,34.9,23.2,30.23,South,172,0.5,4.5,62,0.00,CLR,,0.00,WeatherDisplay:10.37,2013-04-26 08:37:00,
2013-04-26 03:38:00,35.0,23.3,30.23,SSE,167,1.4,4.6,62,0.00,CLR,,0.00,WeatherDisplay:10.37,2013-04-26 08:38:00,
2013-04-26 03:39:00,34.9,23.2,30.24,SSE,167,0.7,3.5,62,0.00,CLR,,0.00,WeatherDisplay:10.37,2013-04-26 08:39:00,
2013-04-26 03:43:00,34.9,23.2,30.23,SSE,164,0.0,0.0,62,0.00,CLR,,0.00,WeatherDisplay:10.37,2013-04-26 08:43:00,
2013-04-26 03:44:00,34.8,23.1,30.23,SSE,164,0.0,0.0,62,0.00,CLR,,0.00,WeatherDisplay:10.37,2013-04-26 08:44:00,
2013-04-26 03:48:00,34.8,22.7,30.23,SSE,164,0.0,0.0,61,0.00,CLR,,0.00,WeatherDisplay:10.37,2013-04-26 08:48:00,
2013-04-26 03:49:00,35.0,22.9,30.23,South,178,0.3,4.6,61,0.00,CLR,,0.00,WeatherDisplay:10.37,2013-04-26 08:49:00,
2013-04-26 03:50:00,35.0,22.9,30.23,South,186,0.4,1.1,61,0.00,CLR,,0.00,WeatherDisplay:10.37,2013-04-26 08:50:00,
2013-04-26 03:53:00,35.0,22.9,30.23,South,186,1.0,5.8,61,0.00,CLR,,0.00,WeatherDisplay:10.37,2013-04-26 08:53:00,
2013-04-26 03:54:00,35.0,22.9,30.23,South,186,0.0,0.0,61,0.00,CLR,,0.00,WeatherDisplay:10.37,2013-04-26 08:54:00,
2013-04-26 03:55:00,35.1,23.0,30.23,South,186,0.0,0.0,61,0.00,CLR,,0.00,WeatherDisplay:10.37,2013-04-26 08:55:00,
2013-04-26 03:58:00,35.2,23.1,30.23,SSE,152,0.0,0.0,61,0.00,CLR,,0.00,WeatherDisplay:10.37,2013-04-26 08:58:00,
2013-04-26 03:59:00,35.1,23.0,30.23,South,178,1.5,3.5,61,0.00,CLR,,0.00,WeatherDisplay:10.37,2013-04-26 08:59:00,
2013-04-26 04:00:00,35.2,23.1,30.23,South,178,0.9,3.5,61,0.00,CLR,,0.00,WeatherDisplay:10.37,2013-04-26 09:00:00,
2013-04-26 04:01:00,35.2,23.1,30.23,SSW,205,2.3,4.6,61,0.00,CLR,,0.00,WeatherDisplay:10.37,2013-04-26 09:01:00,
2013-04-26 04:03:00,35.2,23.1,30.23,SSE,152,0.2,2.6,61,0.00,CLR,,0.00,WeatherDisplay:10.37,2013-04-26 09:03:00,
2013-04-26 04:04:00,35.1,23.0,30.23,South,169,0.7,4.7,61,0.00,CLR,,0.00,WeatherDisplay:10.37,2013-04-26 09:04:00,
2013-04-26 04:05:00,35.2,23.1,30.23,SSW,205,2.0,5.4,61,0.00,CLR,,0.00,WeatherDisplay:10.37,2013-04-26 09:05:00,
2013-04-26 04:06:00,35.3,23.2,30.23,South,175,0.2,5.8,61,0.00,CLR,,0.00,WeatherDisplay:10.37,2013-04-26 09:06:00,
2013-04-26 04:09:00,35.2,23.1,30.23,SSE,167,2.6,5.8,61,0.00,CLR,,0.00,WeatherDisplay:10.37,2013-04-26 09:09:00,
2013-04-26 04:10:00,35.2,23.1,30.23,South,184,0.3,4.0,61,0.00,CLR,,0.00,WeatherDisplay:10.37,2013-04-26 09:10:00,
2013-04-26 04:11:00,35.3,23.2,30.23,South,178,1.2,6.0,61,0.00,CLR,,0.00,WeatherDisplay:10.37,2013-04-26 09:11:00,
2013-04-26 04:14:00,35.4,23.3,30.23,South,179,2.6,6.4,61,0.00,CLR,,0.00,WeatherDisplay:10.37,2013-04-26 09:14:00,
2013-04-26 04:15:00,35.4,23.3,30.23,SSE,164,2.4,6.9,61,0.00,CLR,,0.00,WeatherDisplay:10.37,2013-04-26 09:15:00,
2013-04-26 04:16:00,35.4,23.3,30.23,SSE,164,0.0,1.1,61,0.00,CLR,,0.00,WeatherDisplay:10.37,2013-04-26 09:16:00,
2013-04-26 04:19:00,35.5,23.0,30.23,SSE,164,0.0,0.0,60,0.00,CLR,,0.00,WeatherDisplay:10.37,2013-04-26 09:19:00,
2013-04-26 04:20:00,35.6,23.1,30.23,SSE,164,0.0,0.0,60,0.00,CLR,,0.00,WeatherDisplay:10.37,2013-04-26 09:20:00,
2013-04-26 04:22:00,35.6,23.1,30.23,SSE,164,0.0,0.0,60,0.00,CLR,,0.00,WeatherDisplay:10.37,2013-04-26 09:22:00,
2013-04-26 04:25:00,35.7,23.2,30.23,SSW,205,3.0,6.9,60,0.00,CLR,,0.00,WeatherDisplay:10.37,2013-04-26 09:25:00,
2013-04-26 04:26:00,35.7,23.2,30.23,SW,227,1.0,4.1,60,0.00,CLR,,0.00,WeatherDisplay:10.37,2013-04-26 09:26:00,
2013-04-26 04:28:00,35.8,23.3,30.23,SSE,162,0.0,0.0,60,0.00,CLR,,0.00,WeatherDisplay:10.37,2013-04-26 09:28:00,
2013-04-26 04:30:00,35.8,23.3,30.23,SSW,206,0.6,2.9,60,0.00,CLR,,0.00,WeatherDisplay:10.37,2013-04-26 09:30:00,
2013-04-26 04:31:00,35.9,23.4,30.23,South,188,2.4,4.5,60,0.00,CLR,,0.00,WeatherDisplay:10.37,2013-04-26 09:31:00,
2013-04-26 04:33:00,35.9,23.4,30.23,SSW,192,0.7,2.3,60,0.00,CLR,,0.00,WeatherDisplay:10.37,2013-04-26 09:33:00,
2013-04-26 04:35:00,35.9,23.0,30.23,South,184,0.3,4.6,59,0.00,CLR,,0.00,WeatherDisplay:10.37,2013-04-26 09:35:00,
2013-04-26 04:36:00,36.0,23.0,30.23,South,184,0.0,0.0,59,0.00,CLR,,0.00,WeatherDisplay:10.37,2013-04-26 09:36:00,
2013-04-26 04:38:00,35.9,23.0,30.23,ESE,112,0.0,3.5,59,0.00,CLR,,0.00,WeatherDisplay:10.37,2013-04-26 09:38:00,
2013-04-26 04:40:00,35.9,23.0,30.23,SW,220,2.0,3.5,59,0.00,CLR,,0.00,WeatherDisplay:10.37,2013-04-26 09:40:00,
2013-04-26 04:41:00,35.9,23.0,30.23,South,169,2.1,5.8,59,0.00,CLR,,0.00,WeatherDisplay:10.37,2013-04-26 09:41:00,
2013-04-26 04:42:00,35.9,23.0,30.23,South,178,2.2,4.7,59,0.00,CLR,,0.00,WeatherDisplay:10.37,2013-04-26 09:42:00,
2013-04-26 04:43:00,35.8,22.9,30.23,SSW,205,2.5,4.6,59,0.00,CLR,,0.00,WeatherDisplay:10.37,2013-04-26 09:43:00,
2013-04-26 04:45:00,35.9,23.0,30.22,South,189,3.2,5.8,59,0.00,CLR,,0.00,WeatherDisplay:10.37,2013-04-26 09:45:00,
2013-04-26 04:46:00,35.8,22.9,30.22,SSE,147,2.8,5.8,59,0.00,CLR,,0.00,WeatherDisplay:10.37,2013-04-26 09:46:00,
2013-04-26 04:47:00,35.9,23.0,30.22,South,184,2.4,5.8,59,0.00,CLR,,0.00,WeatherDisplay:10.37,2013-04-26 09:47:00,
2013-04-26 04:48:00,35.9,23.0,30.22,SSW,199,2.7,7.6,59,0.00,CLR,,0.00,WeatherDisplay:10.37,2013-04-26 09:48:00,
2013-04-26 04:51:00,35.8,22.9,30.22,SW,217,2.6,6.9,59,0.00,CLR,,0.00,WeatherDisplay:10.37,2013-04-26 09:51:00,
2013-04-26 04:52:00,35.8,22.9,30.22,SW,224,2.4,6.9,59,0.00,CLR,,0.00,WeatherDisplay:10.37,2013-04-26 09:52:00,
2013-04-26 04:54:00,35.7,22.8,30.22,SSW,192,3.3,6.9,59,0.00,CLR,,0.00,WeatherDisplay:10.37,2013-04-26 09:54:00,
2013-04-26 04:56:00,35.8,22.9,30.22,SSE,154,4.4,6.9,59,0.00,CLR,,0.00,WeatherDisplay:10.37,2013-04-26 09:56:00,
2013-04-26 04:57:00,35.8,22.9,30.22,ESE,109,4.6,5.8,59,0.00,CLR,,0.00,WeatherDisplay:10.37,2013-04-26 09:57:00,
2013-04-26 04:59:00,35.9,23.0,30.22,SW,222,3.3,9.2,59,0.00,CLR,,0.00,WeatherDisplay:10.37,2013-04-26 09:59:00,
2013-04-26 05:01:00,36.0,23.0,30.22,South,185,1.0,8.1,59,0.00,CLR,,0.00,WeatherDisplay:10.37,2013-04-26 10:01:00,
2013-04-26 05:02:00,35.9,23.0,30.22,South,178,2.8,8.1,59,0.00,CLR,,0.00,WeatherDisplay:10.37,2013-04-26 10:02:00,
2013-04-26 05:04:00,35.8,22.9,30.22,South,184,3.2,5.8,59,0.00,CLR,,0.00,WeatherDisplay:10.37,2013-04-26 10:04:00,
2013-04-26 05:06:00,36.0,23.0,30.22,South,184,2.4,4.6,59,0.00,CLR,,0.00,WeatherDisplay:10.37,2013-04-26 10:06:00,
2013-04-26 05:07:00,36.1,23.1,30.22,South,172,4.2,6.5,59,0.00,CLR,,0.00,WeatherDisplay:10.37,2013-04-26 10:07:00,
2013-04-26 05:09:00,36.0,23.0,30.22,SSW,200,1.0,6.9,59,0.00,CLR,,0.00,WeatherDisplay:10.37,2013-04-26 10:09:00,
2013-04-26 05:11:00,36.2,23.2,30.22,South,184,3.1,5.8,59,0.00,CLR,,0.00,WeatherDisplay:10.37,2013-04-26 10:11:00,
2013-04-26 05:12:00,36.1,23.1,30.22,SSW,198,3.4,4.6,59,0.00,CLR,,0.00,WeatherDisplay:10.37,2013-04-26 10:12:00,
2013-04-26 05:14:00,36.2,23.2,30.22,SSE,161,2.5,5.8,59,0.00,CLR,,0.00,WeatherDisplay:10.37,2013-04-26 10:14:00,
2013-04-26 05:17:00,36.3,23.3,30.22,SSW,203,3.2,4.6,59,0.00,CLR,,0.00,WeatherDisplay:10.37,2013-04-26 10:17:00,
2013-04-26 05:20:00,36.4,23.4,30.22,South,178,2.0,4.6,59,0.00,CLR,,0.00,WeatherDisplay:10.37,2013-04-26 10:20:00,
2013-04-26 05:22:00,36.3,23.3,30.22,South,171,1.7,2.8,59,0.00,CLR,,0.00,WeatherDisplay:10.37,2013-04-26 10:22:00,
2013-04-26 05:25:00,36.3,23.3,30.22,SSE,155,0.3,2.3,59,0.00,CLR,,0.00,WeatherDisplay:10.37,2013-04-26 10:25:00,
2013-04-26 05:27:00,36.4,23.4,30.22,SSE,155,0.0,0.0,59,0.00,CLR,,0.00,WeatherDisplay:10.37,2013-04-26 10:27:00,
2013-04-26 05:28:00,36.3,23.3,30.22,South,188,0.3,2.3,59,0.00,CLR,,0.00,WeatherDisplay:10.37,2013-04-26 10:28:00,
2013-04-26 05:30:00,36.5,23.5,30.22,SSW,203,0.5,4.6,59,0.00,CLR,,0.00,WeatherDisplay:10.37,2013-04-26 10:30:00,
2013-04-26 05:32:00,36.6,23.6,30.22,South,191,0.9,4.6,59,0.00,CLR,,0.00,WeatherDisplay:10.37,2013-04-26 10:32:00,
2013-04-26 05:33:00,36.7,23.7,30.22,South,174,1.0,2.3,59,0.00,CLR,,0.00,WeatherDisplay:10.37,2013-04-26 10:33:00,
2013-04-26 05:35:00,36.7,23.7,30.22,SSW,213,2.7,4.6,59,0.00,CLR,,0.00,WeatherDisplay:10.37,2013-04-26 10:35:00,
2013-04-26 05:37:00,36.6,24.0,30.22,SSW,209,3.0,6.9,60,0.00,CLR,,0.00,WeatherDisplay:10.37,2013-04-26 10:37:00,
2013-04-26 05:38:00,36.7,24.1,30.22,SW,226,2.6,3.8,60,0.00,CLR,,0.00,WeatherDisplay:10.37,2013-04-26 10:38:00,
2013-04-26 05:39:00,36.8,24.2,30.22,SSW,195,4.3,5.8,60,0.00,CLR,,0.00,WeatherDisplay:10.37,2013-04-26 10:39:00,
2013-04-26 05:40:00,36.8,23.8,30.22,SW,232,4.6,8.1,59,0.00,CLR,,0.00,WeatherDisplay:10.37,2013-04-26 10:40:00,
2013-04-26 05:42:00,36.9,24.3,30.22,South,178,4.2,6.3,60,0.00,CLR,,0.00,WeatherDisplay:10.37,2013-04-26 10:42:00,
2013-04-26 05:43:00,37.0,24.4,30.22,SW,215,4.7,6.9,60,0.00,CLR,,0.00,WeatherDisplay:10.37,2013-04-26 10:43:00,
2013-04-26 05:44:00,36.9,23.9,30.22,South,184,2.7,5.8,59,0.00,CLR,,0.00,WeatherDisplay:10.37,2013-04-26 10:44:00,
2013-04-26 05:45:00,37.0,24.0,30.22,South,184,3.7,6.9,59,0.00,CLR,,0.00,WeatherDisplay:10.37,2013-04-26 10:45:00,
2013-04-26 05:47:00,37.2,24.2,30.22,SW,224,4.0,8.1,59,0.00,CLR,,0.00,WeatherDisplay:10.37,2013-04-26 10:47:00,
2013-04-26 05:48:00,37.1,24.1,30.22,SSW,208,3.5,8.1,59,0.00,CLR,,0.00,WeatherDisplay:10.37,2013-04-26 10:48:00,
2013-04-26 05:49:00,37.3,24.3,30.22,South,184,4.5,8.1,59,0.00,CLR,,0.00,WeatherDisplay:10.37,2013-04-26 10:49:00,
2013-04-26 05:51:00,37.3,24.3,30.22,South,182,3.3,5.8,59,0.00,CLR,,0.00,WeatherDisplay:10.37,2013-04-26 10:51:00,
2013-04-26 05:53:00,37.5,24.5,30.22,SSE,151,2.8,4.6,59,0.00,CLR,,0.00,WeatherDisplay:10.37,2013-04-26 10:53:00,
2013-04-26 05:54:00,37.5,24.5,30.22,SW,220,4.3,6.8,59,0.00,CLR,,0.00,WeatherDisplay:10.37,2013-04-26 10:54:00,
2013-04-26 05:56:00,37.5,24.5,30.22,SSW,206,4.2,8.1,59,0.00,CLR,,0.00,WeatherDisplay:10.37,2013-04-26 10:56:00,
2013-04-26 05:58:00,37.7,24.6,30.22,SW,236,4.1,5.8,59,0.00,CLR,,0.00,WeatherDisplay:10.37,2013-04-26 10:58:00,
2013-04-26 05:59:00,37.8,24.7,30.22,SSW,193,2.8,8.1,59,0.00,CLR,,0.00,WeatherDisplay:10.37,2013-04-26 10:59:00,
2013-04-26 06:01:00,37.7,24.2,30.22,SSW,202,3.1,6.9,58,0.00,CLR,,0.00,WeatherDisplay:10.37,2013-04-26 11:01:00,
2013-04-26 06:03:00,37.8,24.3,30.22,SW,226,5.0,7.7,58,0.00,CLR,,0.00,WeatherDisplay:10.37,2013-04-26 11:03:00,
2013-04-26 06:04:00,37.9,24.4,30.22,SW,220,5.9,8.1,58,0.00,CLR,,0.00,WeatherDisplay:10.37,2013-04-26 11:04:00,
2013-04-26 06:06:00,37.9,24.4,30.23,SSW,196,4.9,8.1,58,0.00,CLR,,0.00,WeatherDisplay:10.37,2013-04-26 11:06:00,
2013-04-26 06:08:00,37.8,24.3,30.22,South,179,3.9,8.1,58,0.00,CLR,,0.00,WeatherDisplay:10.37,2013-04-26 11:08:00,
2013-04-26 06:09:00,37.8,24.3,30.22,South,179,3.9,8.1,58,0.00,CLR,,0.00,WeatherDisplay:10.37,2013-04-26 11:09:00,
2013-04-26 06:10:00,37.9,24.4,30.22,SW,216,4.6,8.1,58,0.00,CLR,,0.00,WeatherDisplay:10.37,2013-04-26 11:10:00,
2013-04-26 06:11:00,38.0,24.5,30.22,South,186,5.0,8.1,58,0.00,CLR,,0.00,WeatherDisplay:10.37,2013-04-26 11:11:00,
2013-04-26 06:14:00,38.1,24.6,30.22,SSW,212,5.3,8.1,58,0.00,CLR,,0.00,WeatherDisplay:10.37,2013-04-26 11:14:00,
2013-04-26 06:15:00,38.1,24.6,30.23,SSW,193,5.6,8.1,58,0.00,CLR,,0.00,WeatherDisplay:10.37,2013-04-26 11:15:00,
2013-04-26 06:16:00,38.0,24.5,30.22,SSW,193,6.3,10.4,58,0.00,CLR,,0.00,WeatherDisplay:10.37,2013-04-26 11:16:00,
2013-04-26 06:19:00,38.2,24.7,30.23,SSW,213,5.7,9.2,58,0.00,CLR,,0.00,WeatherDisplay:10.37,2013-04-26 11:19:00,
2013-04-26 06:20:00,38.1,24.6,30.23,SSW,205,6.3,9.9,58,0.00,CLR,,0.00,WeatherDisplay:10.37,2013-04-26 11:20:00,
2013-04-26 06:21:00,38.3,24.8,30.23,WSW,241,4.6,6.9,58,0.00,CLR,,0.00,WeatherDisplay:10.37,2013-04-26 11:21:00,
2013-04-26 06:24:00,38.4,24.9,30.23,SSE,164,5.3,7.3,58,0.00,CLR,,0.00,WeatherDisplay:10.37,2013-04-26 11:24:00,
2013-04-26 06:25:00,38.4,24.9,30.23,SSW,212,4.9,8.1,58,0.00,CLR,,0.00,WeatherDisplay:10.37,2013-04-26 11:25:00,
2013-04-26 06:27:00,38.5,25.0,30.23,SSE,161,4.6,9.2,58,0.00,CLR,,0.00,WeatherDisplay:10.37,2013-04-26 11:27:00,
2013-04-26 06:29:00,38.6,25.1,30.23,SSW,210,5.2,8.1,58,0.00,CLR,,0.00,WeatherDisplay:10.37,2013-04-26 11:29:00,
2013-04-26 06:30:00,38.7,25.2,30.23,South,178,6.3,8.1,58,0.00,CLR,,0.00,WeatherDisplay:10.37,2013-04-26 11:30:00,
2013-04-26 06:31:00,38.5,25.0,30.23,SSE,154,4.9,8.1,58,0.00,CLR,,0.00,WeatherDisplay:10.37,2013-04-26 11:31:00,
2013-04-26 06:32:00,38.7,25.2,30.23,SSW,203,5.2,8.1,58,0.00,CLR,,0.00,WeatherDisplay:10.37,2013-04-26 11:32:00,
2013-04-26 06:35:00,38.7,25.2,30.23,SSW,199,4.4,6.9,58,0.00,CLR,,0.00,WeatherDisplay:10.37,2013-04-26 11:35:00,
2013-04-26 06:36:00,38.8,25.3,30.23,SSW,209,5.5,8.1,58,0.00,CLR,,0.00,WeatherDisplay:10.37,2013-04-26 11:36:00,
2013-04-26 06:38:00,38.9,25.4,30.23,South,181,4.9,7.5,58,0.00,CLR,,0.00,WeatherDisplay:10.37,2013-04-26 11:38:00,
2013-04-26 06:40:00,39.1,25.6,30.23,SW,215,3.3,8.1,58,0.00,CLR,,0.00,WeatherDisplay:10.37,2013-04-26 11:40:00,
2013-04-26 06:41:00,39.2,25.6,30.23,SSW,212,5.5,8.1,58,0.00,CLR,,0.00,WeatherDisplay:10.37,2013-04-26 11:41:00,
2013-04-26 06:43:00,39.2,25.2,30.23,SSW,210,4.9,6.9,57,0.00,CLR,,0.00,WeatherDisplay:10.37,2013-04-26 11:43:00,
2013-04-26 06:45:00,39.4,25.4,30.23,SW,215,4.9,6.9,57,0.00,CLR,,0.00,WeatherDisplay:10.37,2013-04-26 11:45:00,
2013-04-26 06:46:00,39.4,25.4,30.23,SSE,158,6.0,8.3,57,0.00,CLR,,0.00,WeatherDisplay:10.37,2013-04-26 11:46:00,
2013-04-26 06:49:00,39.4,25.4,30.22,SSE,164,4.4,6.9,57,0.00,CLR,,0.00,WeatherDisplay:10.37,2013-04-26 11:49:00,
2013-04-26 06:50:00,39.6,25.6,30.22,SSW,193,5.8,8.1,57,0.00,CLR,,0.00,WeatherDisplay:10.37,2013-04-26 11:50:00,
2013-04-26 06:51:00,39.7,25.7,30.23,SSW,193,5.2,8.1,57,0.00,CLR,,0.00,WeatherDisplay:10.37,2013-04-26 11:51:00,
2013-04-26 06:52:00,39.7,25.7,30.23,South,191,4.6,8.1,57,0.00,CLR,,0.00,WeatherDisplay:10.37,2013-04-26 11:52:00,
2013-04-26 06:54:00,39.8,25.8,30.22,South,189,4.8,10.4,57,0.00,CLR,,0.00,WeatherDisplay:10.37,2013-04-26 11:54:00,
2013-04-26 06:55:00,39.8,25.8,30.22,SSW,192,4.0,6.9,57,0.00,CLR,,0.00,WeatherDisplay:10.37,2013-04-26 11:55:00,
2013-04-26 06:56:00,39.9,25.9,30.22,SSW,200,6.3,7.6,57,0.00,CLR,,0.00,WeatherDisplay:10.37,2013-04-26 11:56:00,
2013-04-26 06:57:00,39.9,25.9,30.22,SSW,208,6.4,10.4,57,0.00,CLR,,0.00,WeatherDisplay:10.37,2013-04-26 11:57:00,
2013-04-26 06:59:00,40.0,26.0,30.22,SSW,199,5.1,6.9,57,0.00,CLR,,0.00,WeatherDisplay:10.37,2013-04-26 11:59:00,
2013-04-26 07:01:00,40.2,26.2,30.22,SW,226,5.0,9.8,57,0.00,CLR,,0.00,WeatherDisplay:10.37,2013-04-26 12:01:00,
2013-04-26 07:02:00,40.3,26.3,30.22,SSE,167,6.1,9.4,57,0.00,CLR,,0.00,WeatherDisplay:10.37,2013-04-26 12:02:00,
2013-04-26 07:03:00,40.2,26.2,30.22,SSE,161,5.7,9.2,57,0.00,CLR,,0.00,WeatherDisplay:10.37,2013-04-26 12:03:00,
2013-04-26 07:04:00,40.3,26.3,30.22,South,191,6.1,6.9,57,0.00,CLR,,0.00,WeatherDisplay:10.37,2013-04-26 12:04:00,
2013-04-26 07:06:00,40.3,26.3,30.22,South,179,4.7,8.1,57,0.00,CLR,,0.00,WeatherDisplay:10.37,2013-04-26 12:06:00,
2013-04-26 07:08:00,40.5,26.4,30.22,SSW,212,5.7,8.1,57,0.00,CLR,,0.00,WeatherDisplay:10.37,2013-04-26 12:08:00,
2013-04-26 07:09:00,40.6,26.5,30.22,SSW,196,6.1,9.2,57,0.00,CLR,,0.00,WeatherDisplay:10.37,2013-04-26 12:09:00,
2013-04-26 07:11:00,40.6,26.5,30.22,SSW,213,6.4,9.2,57,0.00,CLR,,0.00,WeatherDisplay:10.37,2013-04-26 12:11:00,
2013-04-26 07:13:00,40.7,26.2,30.22,WSW,251,6.4,9.2,56,0.00,CLR,,0.00,WeatherDisplay:10.37,2013-04-26 12:13:00,
2013-04-26 07:15:00,40.9,26.4,30.22,WSW,243,3.3,6.5,56,0.00,CLR,,0.00,WeatherDisplay:10.37,2013-04-26 12:15:00,
2013-04-26 07:16:00,40.9,26.8,30.22,SSW,209,6.2,8.1,57,0.00,CLR,,0.00,WeatherDisplay:10.37,2013-04-26 12:16:00,
2013-04-26 07:17:00,40.8,26.7,30.22,SSW,203,6.4,9.2,57,0.00,CLR,,0.00,WeatherDisplay:10.37,2013-04-26 12:17:00,
2013-04-26 07:18:00,40.9,26.8,30.22,SW,217,5.7,9.2,57,0.00,CLR,,0.00,WeatherDisplay:10.37,2013-04-26 12:18:00,
2013-04-26 07:20:00,41.0,26.5,30.22,SSW,206,5.2,9.2,56,0.00,CLR,,0.00,WeatherDisplay:10.37,2013-04-26 12:20:00,
2013-04-26 07:21:00,41.0,26.9,30.22,South,178,5.6,8.1,57,0.00,CLR,,0.00,WeatherDisplay:10.37,2013-04-26 12:21:00,
2013-04-26 07:22:00,41.1,27.0,30.22,SW,224,5.8,9.2,57,0.00,CLR,,0.00,WeatherDisplay:10.37,2013-04-26 12:22:00,
2013-04-26 07:23:00,41.1,26.6,30.22,SSE,167,8.2,12.7,56,0.00,CLR,,0.00,WeatherDisplay:10.37,2013-04-26 12:23:00,
2013-04-26 07:24:00,41.2,26.7,30.22,SW,230,6.9,11.5,56,0.00,CLR,,0.00,WeatherDisplay:10.37,2013-04-26 12:24:00,
2013-04-26 07:25:00,41.2,27.1,30.22,SW,226,8.2,10.4,57,0.00,CLR,,0.00,WeatherDisplay:10.37,2013-04-26 12:25:00,
2013-04-26 07:27:00,41.3,26.8,30.21,SSW,209,6.7,10.4,56,0.00,CLR,,0.00,WeatherDisplay:10.37,2013-04-26 12:27:00,
2013-04-26 07:28:00,41.4,26.9,30.22,SSW,206,5.0,9.2,56,0.00,CLR,,0.00,WeatherDisplay:10.37,2013-04-26 12:28:00,
2013-04-26 07:29:00,41.5,27.0,30.22,South,178,5.0,6.9,56,0.00,CLR,,0.00,WeatherDisplay:10.37,2013-04-26 12:29:00,
2013-04-26 07:30:00,41.5,27.0,30.21,South,185,7.4,10.4,56,0.00,CLR,,0.00,WeatherDisplay:10.37,2013-04-26 12:30:00,
2013-04-26 07:32:00,41.5,27.0,30.21,SSW,213,6.4,10.4,56,0.00,CLR,,0.00,WeatherDisplay:10.37,2013-04-26 12:32:00,
2013-04-26 07:34:00,41.7,27.1,30.21,South,191,5.8,9.2,56,0.00,CLR,,0.00,WeatherDisplay:10.37,2013-04-26 12:34:00,
2013-04-26 07:35:00,41.9,27.3,30.21,South,178,6.2,10.4,56,0.00,CLR,,0.00,WeatherDisplay:10.37,2013-04-26 12:35:00,
2013-04-26 07:37:00,42.0,27.4,30.21,SW,234,6.2,8.1,56,0.00,CLR,,0.00,WeatherDisplay:10.37,2013-04-26 12:37:00,
2013-04-26 07:39:00,42.0,27.4,30.21,SSW,202,6.1,8.1,56,0.00,CLR,,0.00,WeatherDisplay:10.37,2013-04-26 12:39:00,
2013-04-26 07:41:00,42.2,27.6,30.21,SSW,209,7.1,10.4,56,0.00,CLR,,0.00,WeatherDisplay:10.37,2013-04-26 12:41:00,
2013-04-26 07:42:00,42.3,27.3,30.21,SSW,205,5.2,9.2,55,0.00,CLR,,0.00,WeatherDisplay:10.37,2013-04-26 12:42:00,
2013-04-26 07:43:00,42.3,27.7,30.21,SSW,199,5.1,8.1,56,0.00,CLR,,0.00,WeatherDisplay:10.37,2013-04-26 12:43:00,
2013-04-26 07:44:00,42.4,27.8,30.21,SSE,167,5.2,10.4,56,0.00,CLR,,0.00,WeatherDisplay:10.37,2013-04-26 12:44:00,
2013-04-26 07:46:00,42.5,27.9,30.21,South,189,5.0,8.6,56,0.00,CLR,,0.00,WeatherDisplay:10.37,2013-04-26 12:46:00,
2013-04-26 07:47:00,42.5,27.9,30.21,SW,232,5.4,9.2,56,0.00,CLR,,0.00,WeatherDisplay:10.37,2013-04-26 12:47:00,
2013-04-26 07:48:00,42.6,28.0,30.21,SW,223,4.7,6.9,56,0.00,CLR,,0.00,WeatherDisplay:10.37,2013-04-26 12:48:00,
2013-04-26 07:49:00,42.6,28.0,30.21,SSE,162,2.6,6.9,56,0.00,CLR,,0.00,WeatherDisplay:10.37,2013-04-26 12:49:00,
2013-04-26 07:52:00,42.7,28.1,30.21,SSW,195,5.6,8.1,56,0.00,CLR,,0.00,WeatherDisplay:10.37,2013-04-26 12:52:00,
2013-04-26 07:53:00,42.8,28.2,30.21,South,189,2.9,6.9,56,0.00,CLR,,0.00,WeatherDisplay:10.37,2013-04-26 12:53:00,
2013-04-26 07:54:00,42.9,28.3,30.21,SSW,206,4.0,5.8,56,0.00,CLR,,0.00,WeatherDisplay:10.37,2013-04-26 12:54:00,
2013-04-26 07:57:00,43.2,28.5,30.21,South,188,5.1,8.1,56,0.00,CLR,,0.00,WeatherDisplay:10.37,2013-04-26 12:57:00,
2013-04-26 07:58:00,43.4,28.7,30.21,SW,217,4.8,8.1,56,0.00,CLR,,0.00,WeatherDisplay:10.37,2013-04-26 12:58:00,
2013-04-26 07:59:00,43.4,28.7,30.21,South,188,4.5,9.3,56,0.00,CLR,,0.00,WeatherDisplay:10.37,2013-04-26 12:59:00,
2013-04-26 08:02:00,43.6,28.5,30.21,SSW,198,4.3,6.9,55,0.00,CLR,,0.00,WeatherDisplay:10.37,2013-04-26 13:02:00,
2013-04-26 08:03:00,43.9,28.8,30.21,SSE,167,8.5,11.3,55,0.00,CLR,,0.00,WeatherDisplay:10.37,2013-04-26 13:03:00,
2013-04-26 08:04:00,43.9,28.8,30.21,South,169,8.7,11.5,55,0.00,CLR,,0.00,WeatherDisplay:10.37,2013-04-26 13:04:00,
2013-04-26 08:05:00,44.2,28.6,30.21,SSW,200,5.9,10.4,54,0.00,CLR,,0.00,WeatherDisplay:10.37,2013-04-26 13:05:00,
2013-04-26 08:07:00,44.5,28.9,30.21,SW,219,6.7,12.7,54,0.00,CLR,,0.00,WeatherDisplay:10.37,2013-04-26 13:07:00,
2013-04-26 08:08:00,44.7,29.1,30.21,West,261,7.2,10.4,54,0.00,CLR,,0.00,WeatherDisplay:10.37,2013-04-26 13:08:00,
2013-04-26 08:09:00,44.7,29.1,30.21,SSW,206,6.4,11.5,54,0.00,CLR,,0.00,WeatherDisplay:10.37,2013-04-26 13:09:00,
2013-04-26 08:10:00,44.8,29.2,30.21,SW,222,5.6,6.9,54,0.00,CLR,,0.00,WeatherDisplay:10.37,2013-04-26 13:10:00,
2013-04-26 08:12:00,45.2,29.5,30.21,SSW,210,6.2,13.8,54,0.00,CLR,,0.00,WeatherDisplay:10.37,2013-04-26 13:12:00,
2013-04-26 08:14:00,45.4,29.3,30.21,SW,224,8.5,15.4,53,0.00,CLR,,0.00,WeatherDisplay:10.37,2013-04-26 13:14:00,
2013-04-26 08:15:00,45.6,29.0,30.21,SW,219,8.8,17.3,52,0.00,CLR,,0.00,WeatherDisplay:10.37,2013-04-26 13:15:00,
2013-04-26 08:17:00,45.9,29.2,30.21,SE,145,5.2,11.5,52,0.00,CLR,,0.00,WeatherDisplay:10.37,2013-04-26 13:17:00,
2013-04-26 08:19:00,46.1,29.4,30.21,SW,215,8.5,16.1,52,0.00,CLR,,0.00,WeatherDisplay:10.37,2013-04-26 13:19:00,
2013-04-26 08:20:00,46.4,29.7,30.21,SSE,155,6.1,10.4,52,0.00,CLR,,0.00,WeatherDisplay:10.37,2013-04-26 13:20:00,
2013-04-26 08:21:00,46.4,29.7,30.21,SW,230,5.9,10.4,52,0.00,CLR,,0.00,WeatherDisplay:10.37,2013-04-26 13:21:00,
2013-04-26 08:22:00,46.5,28.8,30.21,SSW,195,7.6,11.5,50,0.00,CLR,,0.00,WeatherDisplay:10.37,2013-04-26 13:22:00,
2013-04-26 08:24:00,46.8,29.6,30.21,South,172,9.9,16.1,51,0.00,CLR,,0.00,WeatherDisplay:10.37,2013-04-26 13:24:00,
2013-04-26 08:26:00,47.0,29.3,30.21,WSW,251,9.2,13.8,50,0.00,CLR,,0.00,WeatherDisplay:10.37,2013-04-26 13:26:00,
2013-04-26 08:28:00,47.2,29.5,30.21,SW,215,9.4,15.0,50,0.00,CLR,,0.00,WeatherDisplay:10.37,2013-04-26 13:28:00,
2013-04-26 08:29:00,47.2,29.5,30.21,SSE,152,8.5,12.7,50,0.00,CLR,,0.00,WeatherDisplay:10.37,2013-04-26 13:29:00,
2013-04-26 08:31:00,47.4,29.2,30.21,SW,222,10.0,18.4,49,0.00,CLR,,0.00,WeatherDisplay:10.37,2013-04-26 13:31:00,
2013-04-26 08:34:00,47.6,29.9,30.20,SE,126,2.8,4.6,50,0.00,CLR,,0.00,WeatherDisplay:10.37,2013-04-26 13:34:00,
2013-04-26 08:36:00,47.8,29.5,30.21,SSW,199,11.3,12.7,49,0.00,CLR,,0.00,WeatherDisplay:10.37,2013-04-26 13:36:00,
2013-04-26 08:39:00,48.0,29.7,30.20,South,189,6.2,10.4,49,0.00,CLR,,0.00,WeatherDisplay:10.37,2013-04-26 13:39:00,
2013-04-26 08:40:00,48.1,29.8,30.20,South,172,5.9,11.5,49,0.00,CLR,,0.00,WeatherDisplay:10.37,2013-04-26 13:40:00,
2013-04-26 08:41:00,48.1,29.8,30.21,SW,222,8.1,9.8,49,0.00,CLR,,0.00,WeatherDisplay:10.37,2013-04-26 13:41:00,
2013-04-26 08:44:00,48.4,30.1,30.21,SSW,203,6.9,10.4,49,0.00,CLR,,0.00,WeatherDisplay:10.37,2013-04-26 13:44:00,
2013-04-26 08:45:00,48.4,30.1,30.21,South,189,7.2,10.4,49,0.00,CLR,,0.00,WeatherDisplay:10.37,2013-04-26 13:45:00,
2013-04-26 08:46:00,48.5,29.7,30.20,SW,230,7.7,15.0,48,0.00,CLR,,0.00,WeatherDisplay:10.37,2013-04-26 13:46:00,
2013-04-26 08:49:00,48.8,30.5,30.21,WSW,246,6.9,10.4,49,0.00,CLR,,0.00,WeatherDisplay:10.37,2013-04-26 13:49:00,
2013-04-26 08:50:00,48.7,30.4,30.21,SW,227,6.8,10.4,49,0.00,CLR,,0.00,WeatherDisplay:10.37,2013-04-26 13:50:00,
2013-04-26 08:51:00,48.9,30.1,30.21,ESE,112,6.9,11.5,48,0.00,CLR,,0.00,WeatherDisplay:10.37,2013-04-26 13:51:00,
2013-04-26 08:52:00,49.0,30.1,30.21,SSW,196,6.3,11.5,48,0.00,CLR,,0.00,WeatherDisplay:10.37,2013-04-26 13:52:00,
2013-04-26 08:54:00,49.1,30.2,30.21,SE,145,8.6,12.7,48,0.00,CLR,,0.00,WeatherDisplay:10.37,2013-04-26 13:54:00,
2013-04-26 08:55:00,49.1,30.2,30.21,SW,219,7.2,12.7,48,0.00,CLR,,0.00,WeatherDisplay:10.37,2013-04-26 13:55:00,
2013-04-26 08:56:00,49.3,30.4,30.21,SSE,167,7.5,10.4,48,0.00,CLR,,0.00,WeatherDisplay:10.37,2013-04-26 13:56:00,
2013-04-26 08:57:00,49.2,30.3,30.21,South,176,6.6,10.4,48,0.00,CLR,,0.00,WeatherDisplay:10.37,2013-04-26 13:57:00,
2013-04-26 09:00:00,49.5,30.6,30.21,SW,224,8.3,10.4,48,0.00,CLR,,0.00,WeatherDisplay:10.37,2013-04-26 14:00:00,
2013-04-26 09:02:00,49.6,30.7,30.21,SW,223,8.3,11.7,48,0.00,CLR,,0.00,WeatherDisplay:10.37,2013-04-26 14:02:00,
2013-04-26 09:05:00,49.8,30.4,30.21,SSW,209,8.9,11.8,47,0.00,CLR,,0.00,WeatherDisplay:10.37,2013-04-26 14:05:00,
2013-04-26 09:06:00,49.8,30.4,30.21,SSE,150,7.7,12.7,47,0.00,CLR,,0.00,WeatherDisplay:10.37,2013-04-26 14:06:00,
2013-04-26 09:07:00,50.0,30.5,30.21,SSW,202,6.8,9.2,47,0.00,CLR,,0.00,WeatherDisplay:10.37,2013-04-26 14:07:00,
2013-04-26 09:10:00,50.0,30.0,30.21,SSW,199,9.9,17.3,46,0.00,CLR,,0.00,WeatherDisplay:10.37,2013-04-26 14:10:00,
2013-04-26 09:11:00,50.2,30.2,30.21,SSW,205,8.0,12.7,46,0.00,CLR,,0.00,WeatherDisplay:10.37,2013-04-26 14:11:00,
2013-04-26 09:12:00,50.3,30.3,30.21,SW,227,8.6,14.0,46,0.00,CLR,,0.00,WeatherDisplay:10.37,2013-04-26 14:12:00,
2013-04-26 09:13:00,50.3,30.3,30.21,WSW,244,11.1,13.8,46,0.00,CLR,,0.00,WeatherDisplay:10.37,2013-04-26 14:13:00,
2013-04-26 09:15:00,50.3,29.7,30.20,SW,224,10.3,17.3,45,0.00,CLR,,0.00,WeatherDisplay:10.37,2013-04-26 14:15:00,
2013-04-26 09:16:00,50.4,29.8,30.20,WSW,247,8.8,13.8,45,0.00,CLR,,0.00,WeatherDisplay:10.37,2013-04-26 14:16:00,
2013-04-26 09:17:00,50.4,29.8,30.20,SW,216,9.4,15.0,45,0.00,CLR,,0.00,WeatherDisplay:10.37,2013-04-26 14:17:00,
2013-04-26 09:18:00,50.4,29.8,30.20,SSW,210,10.7,16.1,45,0.00,CLR,,0.00,WeatherDisplay:10.37,2013-04-26 14:18:00,
2013-04-26 09:20:00,50.7,29.6,30.20,SW,222,10.9,17.3,44,0.00,CLR,,0.00,WeatherDisplay:10.37,2013-04-26 14:20:00,
2013-04-26 09:21:00,50.7,29.6,30.20,WSW,251,10.2,16.1,44,0.00,CLR,,0.00,WeatherDisplay:10.37,2013-04-26 14:21:00,
2013-04-26 09:22:00,50.7,29.6,30.20,SSW,208,10.5,13.8,44,0.00,CLR,,0.00,WeatherDisplay:10.37,2013-04-26 14:22:00,
2013-04-26 09:23:00,50.7,30.1,30.20,SSW,210,9.5,12.7,45,0.00,CLR,,0.00,WeatherDisplay:10.37,2013-04-26 14:23:00,
2013-04-26 09:25:00,50.8,30.2,30.20,South,186,9.5,17.3,45,0.00,CLR,,0.00,WeatherDisplay:10.37,2013-04-26 14:25:00,
2013-04-26 09:26:00,50.8,30.2,30.20,SW,219,12.1,16.1,45,0.00,CLR,,0.00,WeatherDisplay:10.37,2013-04-26 14:26:00,
2013-04-26 09:27:00,50.8,30.2,30.20,SSW,202,11.0,18.4,45,0.00,CLR,,0.00,WeatherDisplay:10.37,2013-04-26 14:27:00,
2013-04-26 09:28:00,51.0,30.4,30.20,SSW,209,10.3,16.1,45,0.00,CLR,,0.00,WeatherDisplay:10.37,2013-04-26 14:28:00,
2013-04-26 09:30:00,51.0,30.9,30.20,WSW,240,5.7,9.2,46,0.00,CLR,,0.00,WeatherDisplay:10.37,2013-04-26 14:30:00,
2013-04-26 09:31:00,51.0,30.9,30.20,SW,224,9.0,12.7,46,0.00,CLR,,0.00,WeatherDisplay:10.37,2013-04-26 14:31:00,
2013-04-26 09:32:00,51.1,31.0,30.20,SSW,203,9.0,12.7,46,0.00,CLR,,0.00,WeatherDisplay:10.37,2013-04-26 14:32:00,
2013-04-26 09:33:00,51.2,30.6,30.20,SSW,210,9.2,15.0,45,0.00,CLR,,0.00,WeatherDisplay:10.37,2013-04-26 14:33:00,
2013-04-26 09:36:00,51.4,30.7,30.20,West,268,9.2,17.3,45,0.00,CLR,,0.00,WeatherDisplay:10.37,2013-04-26 14:36:00,
2013-04-26 09:37:00,51.6,30.9,30.20,SW,217,10.4,18.4,45,0.00,CLR,,0.00,WeatherDisplay:10.37,2013-04-26 14:37:00,
2013-04-26 09:39:00,51.8,30.6,30.20,SSW,212,10.6,18.4,44,0.00,CLR,,0.00,WeatherDisplay:10.37,2013-04-26 14:39:00,
2013-04-26 09:41:00,52.0,31.3,30.20,SSE,162,8.5,12.7,45,0.00,CLR,,0.00,WeatherDisplay:10.37,2013-04-26 14:41:00,
2013-04-26 09:42:00,52.1,31.4,30.20,SSW,195,9.5,15.0,45,0.00,CLR,,0.00,WeatherDisplay:10.37,2013-04-26 14:42:00,
2013-04-26 09:44:00,52.3,31.0,30.20,SW,232,9.3,13.8,44,0.00,CLR,,0.00,WeatherDisplay:10.37,2013-04-26 14:44:00,
2013-04-26 09:46:00,52.4,31.7,30.20,West,275,6.3,9.2,45,0.00,CLR,,0.00,WeatherDisplay:10.37,2013-04-26 14:46:00,
2013-04-26 09:47:00,52.5,31.8,30.20,SSE,167,9.4,15.0,45,0.00,CLR,,0.00,WeatherDisplay:10.37,2013-04-26 14:47:00,
2013-04-26 09:48:00,52.6,31.3,30.20,South,176,9.0,15.0,44,0.00,CLR,,0.00,WeatherDisplay:10.37,2013-04-26 14:48:00,
2013-04-26 09:49:00,52.7,31.4,30.20,SSW,209,6.7,11.5,44,0.00,CLR,,0.00,WeatherDisplay:10.37,2013-04-26 14:49:00,
2013-04-26 09:51:00,52.9,31.6,30.20,SW,219,10.5,16.1,44,0.00,CLR,,0.00,WeatherDisplay:10.37,2013-04-26 14:51:00,
2013-04-26 09:52:00,53.1,31.7,30.20,South,171,8.8,15.0,44,0.00,CLR,,0.00,WeatherDisplay:10.37,2013-04-26 14:52:00,
2013-04-26 09:53:00,53.1,31.7,30.20,SSW,202,8.6,15.0,44,0.00,CLR,,0.00,WeatherDisplay:10.37,2013-04-26 14:53:00,
2013-04-26 09:54:00,53.3,31.9,30.20,SSW,203,8.6,12.7,44,0.00,CLR,,0.00,WeatherDisplay:10.37,2013-04-26 14:54:00,
2013-04-26 09:56:00,53.4,32.0,30.19,SW,226,5.9,16.1,44,0.00,CLR,,0.00,WeatherDisplay:10.37,2013-04-26 14:56:00,
2013-04-26 09:58:00,53.7,32.3,30.19,SSW,208,9.1,15.0,44,0.00,CLR,,0.00,WeatherDisplay:10.37,2013-04-26 14:58:00,
2013-04-26 09:59:00,53.7,31.7,30.19,South,188,9.2,12.7,43,0.00,CLR,,0.00,WeatherDisplay:10.37,2013-04-26 14:59:00,
2013-04-26 10:01:00,53.9,31.9,30.20,South,178,7.8,13.8,43,0.00,CLR,,0.00,WeatherDisplay:10.37,2013-04-26 15:01:00,
2013-04-26 10:03:00,54.0,32.0,30.19,SW,224,7.4,12.7,43,0.00,CLR,,0.00,WeatherDisplay:10.37,2013-04-26 15:03:00,
2013-04-26 10:04:00,54.1,32.6,30.19,SW,233,5.8,9.2,44,0.00,CLR,,0.00,WeatherDisplay:10.37,2013-04-26 15:04:00,
2013-04-26 10:06:00,54.4,32.3,30.19,South,186,8.6,13.8,43,0.00,CLR,,0.00,WeatherDisplay:10.37,2013-04-26 15:06:00,
2013-04-26 10:08:00,54.6,33.1,30.19,SSW,196,9.1,13.4,44,0.00,CLR,,0.00,WeatherDisplay:10.37,2013-04-26 15:08:00,
2013-04-26 10:09:00,54.6,33.1,30.19,SW,215,10.6,15.0,44,0.00,CLR,,0.00,WeatherDisplay:10.37,2013-04-26 15:09:00,
2013-04-26 10:10:00,54.8,32.7,30.19,SW,233,9.1,12.7,43,0.00,CLR,,0.00,WeatherDisplay:10.37,2013-04-26 15:10:00,
2013-04-26 10:11:00,54.9,32.8,30.19,South,191,7.9,15.0,43,0.00,CLR,,0.00,WeatherDisplay:10.37,2013-04-26 15:11:00,
2013-04-26 10:13:00,55.1,32.4,30.19,SSW,208,7.3,10.4,42,0.00,CLR,,0.00,WeatherDisplay:10.37,2013-04-26 15:13:00,
2013-04-26 10:14:00,55.2,32.5,30.19,SSW,212,4.7,11.5,42,0.00,CLR,,0.00,WeatherDisplay:10.37,2013-04-26 15:14:00,
2013-04-26 10:15:00,55.3,33.2,30.19,SSW,212,6.8,9.5,43,0.00,CLR,,0.00,WeatherDisplay:10.37,2013-04-26 15:15:00,
2013-04-26 10:16:00,55.4,32.7,30.19,WSW,248,7.3,15.0,42,0.00,CLR,,0.00,WeatherDisplay:10.37,2013-04-26 15:16:00,
2013-04-26 10:18:00,55.6,32.8,30.19,SSW,198,7.6,15.8,42,0.00,CLR,,0.00,WeatherDisplay:10.37,2013-04-26 15:18:00,
2013-04-26 10:19:00,55.6,32.8,30.19,SW,232,10.3,16.1,42,0.00,CLR,,0.00,WeatherDisplay:10.37,2013-04-26 15:19:00,
2013-04-26 10:20:00,55.7,32.3,30.19,SSW,205,9.8,13.8,41,0.00,CLR,,0.00,WeatherDisplay:10.37,2013-04-26 15:20:00,
2013-04-26 10:21:00,55.8,33.0,30.19,SW,236,7.4,15.0,42,0.00,CLR,,0.00,WeatherDisplay:10.37,2013-04-26 15:21:00,
2013-04-26 10:23:00,55.7,32.3,30.19,SW,216,11.3,16.1,41,0.00,CLR,,0.00,WeatherDisplay:10.37,2013-04-26 15:23:00,
2013-04-26 10:24:00,55.8,32.4,30.19,SW,224,9.7,17.3,41,0.00,CLR,,0.00,WeatherDisplay:10.37,2013-04-26 15:24:00,
2013-04-26 10:25:00,55.8,32.4,30.19,WSW,241,9.8,13.8,41,0.00,CLR,,0.00,WeatherDisplay:10.37,2013-04-26 15:25:00,
2013-04-26 10:27:00,55.9,33.1,30.19,SW,234,6.9,12.7,42,0.00,CLR,,0.00,WeatherDisplay:10.37,2013-04-26 15:27:00,
2013-04-26 10:29:00,55.9,33.1,30.19,SW,217,8.6,13.8,42,0.00,CLR,,0.00,WeatherDisplay:10.37,2013-04-26 15:29:00,
2013-04-26 10:30:00,55.9,33.1,30.19,South,188,10.9,13.8,42,0.00,CLR,,0.00,WeatherDisplay:10.37,2013-04-26 15:30:00,
2013-04-26 10:32:00,56.0,33.2,30.19,SW,227,7.5,13.8,42,0.00,CLR,,0.00,WeatherDisplay:10.37,2013-04-26 15:32:00,
2013-04-26 10:34:00,56.1,33.9,30.19,SSW,192,7.0,9.2,43,0.00,CLR,,0.00,WeatherDisplay:10.37,2013-04-26 15:34:00,
2013-04-26 10:35:00,56.2,34.0,30.19,SE,138,8.6,17.3,43,0.00,CLR,,0.00,WeatherDisplay:10.37,2013-04-26 15:35:00,
2013-04-26 10:37:00,56.5,33.1,30.19,SSW,198,12.6,16.1,41,0.00,CLR,,0.00,WeatherDisplay:10.37,2013-04-26 15:37:00,
2013-04-26 10:39:00,56.7,33.2,30.19,SSW,205,9.4,18.4,41,0.00,CLR,,0.00,WeatherDisplay:10.37,2013-04-26 15:39:00,
2013-04-26 10:40:00,56.7,33.2,30.19,SW,220,7.2,12.7,41,0.00,CLR,,0.00,WeatherDisplay:10.37,2013-04-26 15:40:00,
2013-04-26 10:41:00,56.8,33.3,30.19,SW,224,12.0,18.4,41,0.00,CLR,,0.00,WeatherDisplay:10.37,2013-04-26 15:41:00,
2013-04-26 10:43:00,56.9,32.8,30.19,SSW,208,11.7,18.4,40,0.00,CLR,,0.00,WeatherDisplay:10.37,2013-04-26 15:43:00,
2013-04-26 10:44:00,57.0,32.9,30.19,SSW,200,12.2,18.4,40,0.00,CLR,,0.00,WeatherDisplay:10.37,2013-04-26 15:44:00,
2013-04-26 10:45:00,57.0,32.3,30.19,WSW,256,12.1,21.9,39,0.00,CLR,,0.00,WeatherDisplay:10.37,2013-04-26 15:45:00,
2013-04-26 10:46:00,57.2,33.1,30.18,SSW,193,9.7,13.8,40,0.00,CLR,,0.00,WeatherDisplay:10.37,2013-04-26 15:46:00,
2013-04-26 10:48:00,57.2,32.4,30.19,SSW,206,9.6,15.0,39,0.00,CLR,,0.00,WeatherDisplay:10.37,2013-04-26 15:48:00,
2013-04-26 10:50:00,57.3,31.9,30.19,SW,223,14.1,21.9,38,0.00,CLR,,0.00,WeatherDisplay:10.37,2013-04-26 15:50:00,
2013-04-26 10:51:00,57.3,33.2,30.19,WSW,237,10.4,17.3,40,0.00,CLR,,0.00,WeatherDisplay:10.37,2013-04-26 15:51:00,
2013-04-26 10:53:00,57.5,32.1,30.19,SW,230,15.3,23.0,38,0.00,CLR,,0.00,WeatherDisplay:10.37,2013-04-26 15:53:00,
2013-04-26 10:55:00,57.5,32.1,30.18,SW,222,8.5,19.6,38,0.00,CLR,,0.00,WeatherDisplay:10.37,2013-04-26 15:55:00,
2013-04-26 10:56:00,57.6,32.8,30.18,SSW,203,7.2,13.8,39,0.00,CLR,,0.00,WeatherDisplay:10.37,2013-04-26 15:56:00,
2013-04-26 10:58:00,57.7,32.2,30.18,SSW,210,13.9,20.2,38,0.00,CLR,,0.00,WeatherDisplay:10.37,2013-04-26 15:58:00,
2013-04-26 11:00:00,57.9,32.4,30.18,SSW,196,12.3,20.7,38,0.00,CLR,,0.00,WeatherDisplay:10.37,2013-04-26 16:00:00,
2013-04-26 11:01:00,57.9,32.4,30.18,South,182,12.4,20.7,38,0.00,CLR,,0.00,WeatherDisplay:10.37,2013-04-26 16:01:00,
2013-04-26 11:02:00,57.9,31.8,30.18,SW,220,12.2,18.4,37,0.00,CLR,,0.00,WeatherDisplay:10.37,2013-04-26 16:02:00,
2013-04-26 11:03:00,58.0,32.5,30.18,SW,223,12.4,20.7,38,0.00,CLR,,0.00,WeatherDisplay:10.37,2013-04-26 16:03:00,
2013-04-26 11:05:00,58.1,32.6,30.18,SW,215,14.8,20.7,38,0.00,CLR,,0.00,WeatherDisplay:10.37,2013-04-26 16:05:00,
2013-04-26 11:06:00,58.1,32.6,30.18,SW,224,13.5,20.7,38,0.00,CLR,,0.00,WeatherDisplay:10.37,2013-04-26 16:06:00,
2013-04-26 11:07:00,58.1,33.2,30.18,WSW,250,13.5,17.3,39,0.00,CLR,,0.00,WeatherDisplay:10.37,2013-04-26 16:07:00,
2013-04-26 11:08:00,58.2,32.7,30.18,SW,230,8.3,17.3,38,0.00,CLR,,0.00,WeatherDisplay:10.37,2013-04-26 16:08:00,
2013-04-26 11:10:00,58.3,32.8,30.18,SSW,213,12.9,19.6,38,0.00,CLR,,0.00,WeatherDisplay:10.37,2013-04-26 16:10:00,
2013-04-26 11:11:00,58.3,32.1,30.18,SW,232,10.7,19.6,37,0.00,CLR,,0.00,WeatherDisplay:10.37,2013-04-26 16:11:00,
2013-04-26 11:12:00,58.3,32.8,30.18,SSW,192,9.2,14.7,38,0.00,CLR,,0.00,WeatherDisplay:10.37,2013-04-26 16:12:00,
2013-04-26 11:13:00,58.5,33.0,30.18,SSW,193,10.6,18.4,38,0.00,CLR,,0.00,WeatherDisplay:10.37,2013-04-26 16:13:00,
2013-04-26 11:16:00,58.5,33.6,30.18,SW,220,10.2,17.8,39,0.00,CLR,,0.00,WeatherDisplay:10.37,2013-04-26 16:16:00,
2013-04-26 11:17:00,58.5,33.0,30.18,SSW,198,16.1,24.2,38,0.00,CLR,,0.00,WeatherDisplay:10.37,2013-04-26 16:17:00,
2013-04-26 11:19:00,58.6,32.4,30.18,SW,215,12.0,18.4,37,0.00,CLR,,0.00,WeatherDisplay:10.37,2013-04-26 16:19:00,
2013-04-26 11:21:00,58.7,33.1,30.19,SW,234,8.9,15.0,38,0.00,CLR,,0.00,WeatherDisplay:10.37,2013-04-26 16:21:00,
2013-04-26 11:22:00,58.7,32.5,30.19,WSW,254,10.6,17.3,37,0.00,CLR,,0.00,WeatherDisplay:10.37,2013-04-26 16:22:00,
2013-04-26 11:24:00,58.9,32.0,30.19,WSW,237,11.9,19.6,36,0.00,CLR,,0.00,WeatherDisplay:10.37,2013-04-26 16:24:00,
2013-04-26 11:26:00,59.0,33.4,30.19,SSE,158,9.7,15.0,38,0.00,CLR,,0.00,WeatherDisplay:10.37,2013-04-26 16:26:00,
2013-04-26 11:27:00,59.0,33.4,30.19,SW,217,9.9,23.3,38,0.00,CLR,,0.00,WeatherDisplay:10.37,2013-04-26 16:27:00,
2013-04-26 11:29:00,59.1,32.8,30.19,SW,227,14.7,20.7,37,0.00,CLR,,0.00,WeatherDisplay:10.37,2013-04-26 16:29:00,
2013-04-26 11:31:00,59.1,32.1,30.19,SW,227,12.9,20.8,36,0.00,CLR,,0.00,WeatherDisplay:10.37,2013-04-26 16:31:00,
2013-04-26 11:32:00,59.1,32.8,30.19,SSW,203,13.6,20.7,37,0.00,CLR,,0.00,WeatherDisplay:10.37,2013-04-26 16:32:00,
2013-04-26 11:33:00,59.1,32.8,30.19,WSW,247,11.5,20.7,37,0.00,CLR,,0.00,WeatherDisplay:10.37,2013-04-26 16:33:00,
2013-04-26 11:34:00,59.1,33.5,30.18,SSW,209,9.8,14.0,38,0.00,CLR,,0.00,WeatherDisplay:10.37,2013-04-26 16:34:00,
2013-04-26 11:37:00,59.3,33.0,30.18,SSW,202,9.2,16.1,37,0.00,CLR,,0.00,WeatherDisplay:10.37,2013-04-26 16:37:00,
2013-04-26 11:38:00,59.3,33.7,30.18,SSW,205,11.5,21.9,38,0.00,CLR,,0.00,WeatherDisplay:10.37,2013-04-26 16:38:00,
2013-04-26 11:39:00,59.3,33.0,30.18,SSW,208,12.6,19.6,37,0.00,CLR,,0.00,WeatherDisplay:10.37,2013-04-26 16:39:00,
2013-04-26 11:42:00,59.3,33.7,30.18,SSW,210,10.9,17.3,38,0.00,CLR,,0.00,WeatherDisplay:10.37,2013-04-26 16:42:00,
2013-04-26 11:43:00,59.3,33.7,30.18,WSW,254,10.6,13.8,38,0.00,CLR,,0.00,WeatherDisplay:10.37,2013-04-26 16:43:00,
2013-04-26 11:44:00,59.4,33.8,30.18,South,175,10.0,16.1,38,0.00,CLR,,0.00,WeatherDisplay:10.37,2013-04-26 16:44:00,
2013-04-26 11:47:00,59.4,33.1,30.18,SW,226,11.4,23.0,37,0.00,CLR,,0.00,WeatherDisplay:10.37,2013-04-26 16:47:00,
2013-04-26 11:48:00,59.4,33.8,30.18,SW,234,8.3,13.8,38,0.00,CLR,,0.00,WeatherDisplay:10.37,2013-04-26 16:48:00,
2013-04-26 11:49:00,59.5,33.9,30.18,SW,227,11.4,16.1,38,0.00,CLR,,0.00,WeatherDisplay:10.37,2013-04-26 16:49:00,
2013-04-26 11:50:00,59.5,33.9,30.18,SW,220,11.0,16.1,38,0.00,CLR,,0.00,WeatherDisplay:10.37,2013-04-26 16:50:00,
2013-04-26 11:52:00,59.8,34.1,30.18,South,169,11.2,19.6,38,0.00,CLR,,0.00,WeatherDisplay:10.37,2013-04-26 16:52:00,
2013-04-26 11:53:00,59.8,34.1,30.18,SSW,196,9.7,16.1,38,0.00,CLR,,0.00,WeatherDisplay:10.37,2013-04-26 16:53:00,
2013-04-26 11:54:00,59.9,34.2,30.18,WNW,282,6.7,11.5,38,0.00,CLR,,0.00,WeatherDisplay:10.37,2013-04-26 16:54:00,
2013-04-26 11:55:00,60.1,33.7,30.18,SSW,200,11.7,24.2,37,0.00,CLR,,0.00,WeatherDisplay:10.37,2013-04-26 16:55:00,
2013-04-26 11:57:00,60.3,33.2,30.18,SW,220,12.4,20.7,36,0.00,CLR,,0.00,WeatherDisplay:10.37,2013-04-26 16:57:00,
2013-04-26 11:58:00,60.3,33.2,30.18,SSW,210,13.1,20.7,36,0.00,CLR,,0.00,WeatherDisplay:10.37,2013-04-26 16:58:00,
2013-04-26 11:59:00,60.4,33.3,30.18,SSW,212,14.3,25.3,36,0.00,CLR,,0.00,WeatherDisplay:10.37,2013-04-26 16:59:00,
2013-04-26 12:00:00,60.3,33.2,30.18,SW,233,14.5,23.0,36,0.00,CLR,,0.00,WeatherDisplay:10.37,2013-04-26 17:00:00,
2013-04-26 12:02:00,60.3,33.2,30.17,SSW,202,11.9,16.1,36,0.00,CLR,,0.00,WeatherDisplay:10.37,2013-04-26 17:02:00,
2013-04-26 12:03:00,60.3,33.2,30.17,SW,223,14.2,20.1,36,0.00,CLR,,0.00,WeatherDisplay:10.37,2013-04-26 17:03:00,
2013-04-26 12:05:00,60.3,33.9,30.18,SW,229,10.2,15.9,37,0.00,CLR,,0.00,WeatherDisplay:10.37,2013-04-26 17:05:00,
2013-04-26 12:08:00,60.5,33.4,30.17,WSW,250,13.1,17.3,36,0.00,CLR,,0.00,WeatherDisplay:10.37,2013-04-26 17:08:00,
2013-04-26 12:10:00,60.5,32.7,30.17,West,267,11.5,21.9,35,0.00,CLR,,0.00,WeatherDisplay:10.37,2013-04-26 17:10:00,
2013-04-26 12:13:00,60.7,34.3,30.18,SW,215,12.6,18.4,37,0.00,CLR,,0.00,WeatherDisplay:10.37,2013-04-26 17:13:00,
2013-04-26 12:15:00,60.8,33.0,30.17,SSW,213,14.4,24.2,35,0.00,CLR,,0.00,WeatherDisplay:10.37,2013-04-26 17:15:00,
2013-04-26 12:18:00,60.9,33.7,30.17,SW,215,15.8,20.7,36,0.00,CLR,,0.00,WeatherDisplay:10.37,2013-04-26 17:18:00,
2013-04-26 12:20:00,60.8,33.7,30.17,SSW,208,14.7,18.4,36,0.00,CLR,,0.00,WeatherDisplay:10.37,2013-04-26 17:20:00,
2013-04-26 12:21:00,60.9,33.0,30.17,SW,223,14.6,23.0,35,0.00,CLR,,0.00,WeatherDisplay:10.37,2013-04-26 17:21:00,
2013-04-26 12:23:00,61.2,34.7,30.17,SW,220,12.8,22.8,37,0.00,CLR,,0.00,WeatherDisplay:10.37,2013-04-26 17:23:00,
2013-04-26 12:25:00,61.3,34.1,30.17,WSW,248,11.0,20.7,36,0.00,CLR,,0.00,WeatherDisplay:10.37,2013-04-26 17:25:00,
2013-04-26 12:26:00,61.3,33.4,30.17,SW,223,12.3,19.5,35,0.00,CLR,,0.00,WeatherDisplay:10.37,2013-04-26 17:26:00,
2013-04-26 12:28:00,61.4,34.2,30.17,SW,215,11.9,17.3,36,0.00,CLR,,0.00,WeatherDisplay:10.37,2013-04-26 17:28:00,
2013-04-26 12:30:00,61.5,33.6,30.17,SW,229,15.9,25.3,35,0.00,CLR,,0.00,WeatherDisplay:10.37,2013-04-26 17:30:00,
2013-04-26 12:31:00,61.6,33.7,30.17,SSW,203,13.9,25.3,35,0.00,CLR,,0.00,WeatherDisplay:10.37,2013-04-26 17:31:00,
2013-04-26 12:33:00,61.7,34.5,30.17,South,178,11.0,19.1,36,0.00,CLR,,0.00,WeatherDisplay:10.37,2013-04-26 17:33:00,
2013-04-26 12:34:00,61.7,34.5,30.17,SW,223,12.2,15.1,36,0.00,CLR,,0.00,WeatherDisplay:10.37,2013-04-26 17:34:00,
2013-04-26 12:36:00,61.8,33.8,30.17,SW,233,10.1,17.3,35,0.00,CLR,,0.00,WeatherDisplay:10.37,2013-04-26 17:36:00,
2013-04-26 12:39:00,61.8,34.5,30.17,SW,216,11.6,17.3,36,0.00,CLR,,0.00,WeatherDisplay:10.37,2013-04-26 17:39:00,
2013-04-26 12:41:00,62.0,33.3,30.17,SW,230,11.6,18.4,34,0.00,CLR,,0.00,WeatherDisplay:10.37,2013-04-26 17:41:00,
2013-04-26 12:44:00,62.1,34.8,30.16,SW,220,11.1,17.3,36,0.00,CLR,,0.00,WeatherDisplay:10.37,2013-04-26 17:44:00,
2013-04-26 12:46:00,62.2,34.2,30.16,SW,223,15.7,26.5,35,0.00,CLR,,0.00,WeatherDisplay:10.37,2013-04-26 17:46:00,
2013-04-26 12:47:00,62.1,33.4,30.16,SSW,208,13.8,21.9,34,0.00,CLR,,0.00,WeatherDisplay:10.37,2013-04-26 17:47:00,
2013-04-26 12:49:00,62.1,34.1,30.16,WSW,254,12.3,23.0,35,0.00,CLR,,0.00,WeatherDisplay:10.37,2013-04-26 17:49:00,
2013-04-26 12:50:00,62.2,34.2,30.16,SW,229,11.2,18.4,35,0.00,CLR,,0.00,WeatherDisplay:10.37,2013-04-26 17:50:00,
2013-04-26 12:51:00,62.3,34.3,30.16,SW,223,15.1,22.3,35,0.00,CLR,,0.00,WeatherDisplay:10.37,2013-04-26 17:51:00,
2013-04-26 12:52:00,62.2,33.5,30.16,SW,229,13.2,20.7,34,0.00,CLR,,0.00,WeatherDisplay:10.37,2013-04-26 17:52:00,
2013-04-26 12:54:00,62.1,33.4,30.16,SW,234,12.2,19.6,34,0.00,CLR,,0.00,WeatherDisplay:10.37,2013-04-26 17:54:00,
2013-04-26 12:56:00,62.2,34.2,30.16,West,260,14.6,23.0,35,0.00,CLR,,0.00,WeatherDisplay:10.37,2013-04-26 17:56:00,
2013-04-26 12:57:00,62.1,34.8,30.16,SSW,203,11.1,16.7,36,0.00,CLR,,0.00,WeatherDisplay:10.37,2013-04-26 17:57:00,
2013-04-26 12:59:00,62.1,34.8,30.16,West,274,8.1,19.6,36,0.00,CLR,,0.00,WeatherDisplay:10.37,2013-04-26 17:59:00,
2013-04-26 13:01:00,62.3,33.6,30.15,SW,229,14.5,21.9,34,0.00,CLR,,0.00,WeatherDisplay:10.37,2013-04-26 18:01:00,
2013-04-26 13:02:00,62.4,35.1,30.16,SW,229,10.5,19.6,36,0.00,CLR,,0.00,WeatherDisplay:10.37,2013-04-26 18:02:00,
2013-04-26 13:04:00,62.5,35.2,30.15,SSW,213,8.8,15.0,36,0.00,CLR,,0.00,WeatherDisplay:10.37,2013-04-26 18:04:00,
2013-04-26 13:06:00,62.7,35.3,30.15,SW,224,12.6,21.1,36,0.00,CLR,,0.00,WeatherDisplay:10.37,2013-04-26 18:06:00,
2013-04-26 13:07:00,62.7,34.6,30.15,WSW,251,13.2,21.9,35,0.00,CLR,,0.00,WeatherDisplay:10.37,2013-04-26 18:07:00,
2013-04-26 13:08:00,62.8,34.7,30.15,WSW,240,13.1,18.4,35,0.00,CLR,,0.00,WeatherDisplay:10.37,2013-04-26 18:08:00,
2013-04-26 13:10:00,62.8,35.4,30.15,SSW,213,7.9,19.6,36,0.00,CLR,,0.00,WeatherDisplay:10.37,2013-04-26 18:10:00,
2013-04-26 13:11:00,63.0,36.3,30.15,WSW,239,9.2,13.8,37,0.00,CLR,,0.00,WeatherDisplay:10.37,2013-04-26 18:11:00,
2013-04-26 13:12:00,63.0,36.3,30.15,SSW,212,10.2,13.8,37,0.00,CLR,,0.00,WeatherDisplay:10.37,2013-04-26 18:12:00,
2013-04-26 13:13:00,63.2,36.5,30.15,SW,223,10.9,21.9,37,0.00,CLR,,0.00,WeatherDisplay:10.37,2013-04-26 18:13:00,
2013-04-26 13:15:00,63.4,35.2,30.15,SW,216,10.7,16.1,35,0.00,CLR,,0.00,WeatherDisplay:10.37,2013-04-26 18:15:00,
2013-04-26 13:17:00,63.4,35.2,30.15,SSW,209,10.4,17.3,35,0.00,CLR,,0.00,WeatherDisplay:10.37,2013-04-26 18:17:00,
2013-04-26 13:18:00,63.7,35.5,30.15,SW,233,11.5,19.6,35,0.00,CLR,,0.00,WeatherDisplay:10.37,2013-04-26 18:18:00,
2013-04-26 13:21:00,64.0,35.8,30.15,SSW,200,11.1,17.3,35,0.00,CLR,,0.00,WeatherDisplay:10.37,2013-04-26 18:21:00,
2013-04-26 13:22:00,64.0,35.0,30.15,SW,217,13.2,18.4,34,0.00,CLR,,0.00,WeatherDisplay:10.37,2013-04-26 18:22:00,
2013-04-26 13:23:00,63.9,35.0,30.15,SW,220,11.1,16.2,34,0.00,CLR,,0.00,WeatherDisplay:10.37,2013-04-26 18:23:00,
2013-04-26 13:26:00,64.1,33.6,30.15,WSW,250,14.9,24.2,32,0.00,CLR,,0.00,WeatherDisplay:10.37,2013-04-26 18:26:00,
2013-04-26 13:27:00,64.1,34.4,30.15,SW,227,16.4,25.3,33,0.00,CLR,,0.00,WeatherDisplay:10.37,2013-04-26 18:27:00,
2013-04-26 13:28:00,64.1,34.4,30.14,SSW,210,16.1,25.3,33,0.00,CLR,,0.00,WeatherDisplay:10.37,2013-04-26 18:28:00,
2013-04-26 13:31:00,64.2,35.2,30.14,SW,224,12.5,17.3,34,0.00,CLR,,0.00,WeatherDisplay:10.37,2013-04-26 18:31:00,
2013-04-26 13:32:00,64.2,36.0,30.14,SW,215,11.0,15.0,35,0.00,CLR,,0.00,WeatherDisplay:10.37,2013-04-26 18:32:00,
2013-04-26 13:33:00,64.1,35.9,30.14,WSW,253,12.0,17.3,35,0.00,CLR,,0.00,WeatherDisplay:10.37,2013-04-26 18:33:00,
2013-04-26 13:36:00,64.4,35.4,30.14,SW,229,13.9,23.0,34,0.00,CLR,,0.00,WeatherDisplay:10.37,2013-04-26 18:36:00,
2013-04-26 13:37:00,64.5,35.5,30.14,WSW,237,10.4,21.9,34,0.00,CLR,,0.00,WeatherDisplay:10.37,2013-04-26 18:37:00,
2013-04-26 13:38:00,64.5,35.5,30.14,SSW,203,9.9,15.0,34,0.00,CLR,,0.00,WeatherDisplay:10.37,2013-04-26 18:38:00,
2013-04-26 13:41:00,65.0,35.2,30.14,SSW,198,15.5,25.3,33,0.00,CLR,,0.00,WeatherDisplay:10.37,2013-04-26 18:41:00,
2013-04-26 13:42:00,65.0,35.2,30.14,SSW,200,12.3,26.5,33,0.00,CLR,,0.00,WeatherDisplay:10.37,2013-04-26 18:42:00,
2013-04-26 13:43:00,65.2,34.6,30.14,SW,232,10.4,15.0,32,0.00,CLR,,0.00,WeatherDisplay:10.37,2013-04-26 18:43:00,
2013-04-26 13:44:00,65.2,34.6,30.14,SW,215,11.5,19.6,32,0.00,CLR,,0.00,WeatherDisplay:10.37,2013-04-26 18:44:00,
2013-04-26 13:46:00,65.2,34.6,30.14,SSW,209,18.2,24.2,32,0.00,CLR,,0.00,WeatherDisplay:10.37,2013-04-26 18:46:00,
2013-04-26 13:47:00,65.2,33.8,30.14,SW,220,15.9,25.3,31,0.00,CLR,,0.00,WeatherDisplay:10.37,2013-04-26 18:47:00,
2013-04-26 13:48:00,65.4,34.8,30.14,SSW,198,12.3,27.6,32,0.00,CLR,,0.00,WeatherDisplay:10.37,2013-04-26 18:48:00,
2013-04-26 13:49:00,65.3,34.7,30.14,SW,227,13.1,19.6,32,0.00,CLR,,0.00,WeatherDisplay:10.37,2013-04-26 18:49:00,
2013-04-26 13:51:00,65.4,34.8,30.14,SSW,200,9.7,16.2,32,0.00,CLR,,0.00,WeatherDisplay:10.37,2013-04-26 18:51:00,
2013-04-26 13:52:00,65.6,35.7,30.14,SW,223,12.3,15.0,33,0.00,CLR,,0.00,WeatherDisplay:10.37,2013-04-26 18:52:00,
2013-04-26 13:53:00,65.6,35.7,30.14,South,175,14.0,18.7,33,0.00,CLR,,0.00,WeatherDisplay:10.37,2013-04-26 18:53:00,
2013-04-26 13:54:00,65.6,34.9,30.14,SSW,213,13.3,20.7,32,0.00,CLR,,0.00,WeatherDisplay:10.37,2013-04-26 18:54:00,
2013-04-26 13:56:00,65.9,35.2,30.14,SW,227,12.9,19.6,32,0.00,CLR,,0.00,WeatherDisplay:10.37,2013-04-26 18:56:00,
2013-04-26 13:58:00,65.9,35.2,30.14,SW,224,13.2,21.9,32,0.00,CLR,,0.00,WeatherDisplay:10.37,2013-04-26 18:58:00,
2013-04-26 13:59:00,66.0,35.3,30.14,WSW,241,12.5,18.4,32,0.00,CLR,,0.00,WeatherDisplay:10.37,2013-04-26 18:59:00,
2013-04-26 14:01:00,66.0,35.3,30.14,SSW,196,10.3,20.7,32,0.00,CLR,,0.00,WeatherDisplay:10.37,2013-04-26 19:01:00,
2013-04-26 14:03:00,66.2,35.4,30.14,SSW,209,9.8,18.4,32,0.00,CLR,,0.00,WeatherDisplay:10.37,2013-04-26 19:03:00,
2013-04-26 14:04:00,66.2,36.2,30.13,SSW,195,10.5,16.1,33,0.00,CLR,,0.00,WeatherDisplay:10.37,2013-04-26 19:04:00,
2013-04-26 14:07:00,66.5,35.7,30.14,SW,230,10.3,21.9,32,0.00,CLR,,0.00,WeatherDisplay:10.37,2013-04-26 19:07:00,
2013-04-26 14:08:00,66.7,35.1,30.13,SW,220,12.6,18.4,31,0.00,CLR,,0.00,WeatherDisplay:10.37,2013-04-26 19:08:00,
2013-04-26 14:09:00,66.7,35.1,30.14,SW,216,14.4,21.9,31,0.00,CLR,,0.00,WeatherDisplay:10.37,2013-04-26 19:09:00,
2013-04-26 14:10:00,66.8,35.2,30.14,SW,224,15.1,21.9,31,0.00,CLR,,0.00,WeatherDisplay:10.37,2013-04-26 19:10:00,
2013-04-26 14:12:00,66.8,35.2,30.13,SW,220,10.2,26.5,31,0.00,CLR,,0.00,WeatherDisplay:10.37,2013-04-26 19:12:00,
2013-04-26 14:14:00,66.8,35.2,30.14,SW,223,14.9,23.0,31,0.00,CLR,,0.00,WeatherDisplay:10.37,2013-04-26 19:14:00,
2013-04-26 14:15:00,66.9,35.3,30.13,SW,227,12.4,19.6,31,0.00,CLR,,0.00,WeatherDisplay:10.37,2013-04-26 19:15:00,
2013-04-26 14:16:00,67.0,36.1,30.14,SSW,202,10.4,16.1,32,0.00,CLR,,0.00,WeatherDisplay:10.37,2013-04-26 19:16:00,
2013-04-26 14:17:00,67.0,35.3,30.13,SSW,210,11.8,20.7,31,0.00,CLR,,0.00,WeatherDisplay:10.37,2013-04-26 19:17:00,
2013-04-26 14:19:00,67.2,35.5,30.14,SW,226,14.1,24.7,31,0.00,CLR,,0.00,WeatherDisplay:10.37,2013-04-26 19:19:00,
2013-04-26 14:20:00,67.3,34.8,30.13,South,189,13.6,24.2,30,0.00,CLR,,0.00,WeatherDisplay:10.37,2013-04-26 19:20:00,
2013-04-26 14:21:00,67.3,34.8,30.13,SW,222,10.5,21.5,30,0.00,CLR,,0.00,WeatherDisplay:10.37,2013-04-26 19:21:00,
2013-04-26 14:22:00,67.5,35.0,30.13,WSW,244,14.0,21.9,30,0.00,CLR,,0.00,WeatherDisplay:10.37,2013-04-26 19:22:00,
2013-04-26 14:24:00,67.5,34.1,30.13,SSW,196,11.4,26.5,29,0.00,CLR,,0.00,WeatherDisplay:10.37,2013-04-26 19:24:00,
2013-04-26 14:25:00,67.5,35.0,30.13,SW,216,11.4,20.7,30,0.00,CLR,,0.00,WeatherDisplay:10.37,2013-04-26 19:25:00,
2013-04-26 14:26:00,67.4,34.9,30.13,SW,229,11.8,18.4,30,0.00,CLR,,0.00,WeatherDisplay:10.37,2013-04-26 19:26:00,
2013-04-26 14:27:00,67.2,34.7,30.13,WSW,239,15.0,20.3,30,0.00,CLR,,0.00,WeatherDisplay:10.37,2013-04-26 19:27:00,
2013-04-26 14:29:00,67.2,34.7,30.13,NW,311,9.8,17.3,30,0.00,CLR,,0.00,WeatherDisplay:10.37,2013-04-26 19:29:00,
2013-04-26 14:30:00,67.3,34.8,30.13,WSW,257,9.5,19.6,30,0.00,CLR,,0.00,WeatherDisplay:10.37,2013-04-26 19:30:00,
2013-04-26 14:31:00,67.4,35.7,30.13,WSW,256,10.4,17.4,31,0.00,CLR,,0.00,WeatherDisplay:10.37,2013-04-26 19:31:00,
2013-04-26 14:32:00,67.2,34.7,30.13,SW,223,16.2,17.4,30,0.00,CLR,,0.00,WeatherDisplay:10.37,2013-04-26 19:32:00,
2013-04-26 14:35:00,67.2,36.3,30.12,SSW,208,11.0,17.3,32,0.00,CLR,,0.00,WeatherDisplay:10.37,2013-04-26 19:35:00,
2013-04-26 14:36:00,67.2,34.7,30.12,SW,220,15.6,24.2,30,0.00,CLR,,0.00,WeatherDisplay:10.37,2013-04-26 19:36:00,
2013-04-26 14:37:00,67.3,34.8,30.12,SSW,202,14.4,23.0,30,0.00,CLR,,0.00,WeatherDisplay:10.37,2013-04-26 19:37:00,
2013-04-26 14:40:00,67.1,33.8,30.12,SW,230,13.3,20.7,29,0.00,CLR,,0.00,WeatherDisplay:10.37,2013-04-26 19:40:00,
2013-04-26 14:42:00,66.9,36.1,30.12,South,189,11.6,17.3,32,0.00,CLR,,0.00,WeatherDisplay:10.37,2013-04-26 19:42:00,
2013-04-26 14:45:00,67.1,36.2,30.12,SW,229,9.8,19.6,32,0.00,CLR,,0.00,WeatherDisplay:10.37,2013-04-26 19:45:00,
2013-04-26 14:47:00,67.2,36.3,30.12,SSW,199,11.3,18.4,32,0.00,CLR,,0.00,WeatherDisplay:10.37,2013-04-26 19:47:00,
2013-04-26 14:50:00,67.3,34.8,30.12,SSW,212,10.7,16.1,30,0.00,CLR,,0.00,WeatherDisplay:10.37,2013-04-26 19:50:00,
2013-04-26 14:52:00,67.5,36.6,30.12,SSW,200,12.0,17.3,32,0.00,CLR,,0.00,WeatherDisplay:10.37,2013-04-26 19:52:00,
2013-04-26 14:53:00,67.5,36.6,30.12,SSW,203,12.9,20.7,32,0.00,CLR,,0.00,WeatherDisplay:10.37,2013-04-26 19:53:00,
2013-04-26 14:55:00,67.4,35.7,30.12,South,186,10.5,15.0,31,0.00,CLR,,0.00,WeatherDisplay:10.37,2013-04-26 19:55:00,
2013-04-26 14:57:00,67.5,35.0,30.12,SW,232,18.1,23.4,30,0.00,CLR,,0.00,WeatherDisplay:10.37,2013-04-26 19:57:00,
2013-04-26 14:58:00,67.4,34.9,30.12,SW,227,16.9,23.0,30,0.00,CLR,,0.00,WeatherDisplay:10.37,2013-04-26 19:58:00,
2013-04-26 15:00:00,67.7,36.0,30.12,SW,219,13.6,20.7,31,0.00,CLR,,0.00,WeatherDisplay:10.37,2013-04-26 20:00:00,
2013-04-26 15:01:00,67.6,35.0,30.12,SW,230,13.6,20.7,30,0.00,CLR,,0.00,WeatherDisplay:10.37,2013-04-26 20:01:00,
2013-04-26 15:03:00,67.8,35.2,30.11,SW,223,13.0,20.7,30,0.00,CLR,,0.00,WeatherDisplay:10.37,2013-04-26 20:03:00,
2013-04-26 15:05:00,68.2,36.4,30.12,SW,219,12.4,18.8,31,0.00,CLR,,0.00,WeatherDisplay:10.37,2013-04-26 20:05:00,
2013-04-26 15:06:00,68.5,35.8,30.12,SW,234,12.7,20.7,30,0.00,CLR,,0.00,WeatherDisplay:10.37,2013-04-26 20:06:00,
2013-04-26 15:08:00,68.6,35.1,30.11,SW,215,13.4,18.4,29,0.00,CLR,,0.00,WeatherDisplay:10.37,2013-04-26 20:08:00,
2013-04-26 15:09:00,68.6,35.1,30.12,SW,220,12.7,23.5,29,0.00,CLR,,0.00,WeatherDisplay:10.37,2013-04-26 20:09:00,
2013-04-26 15:10:00,68.7,35.1,30.12,WSW,246,14.7,26.5,29,0.00,CLR,,0.00,WeatherDisplay:10.37,2013-04-26 20:10:00,
2013-04-26 15:11:00,68.6,35.1,30.11,SW,220,10.6,23.0,29,0.00,CLR,,0.00,WeatherDisplay:10.37,2013-04-26 20:11:00,
2013-04-26 15:13:00,68.4,35.7,30.11,SSW,200,13.7,20.7,30,0.00,CLR,,0.00,WeatherDisplay:10.37,2013-04-26 20:13:00,
2013-04-26 15:14:00,68.4,35.7,30.11,WSW,240,12.0,20.7,30,0.00,CLR,,0.00,WeatherDisplay:10.37,2013-04-26 20:14:00,
2013-04-26 15:15:00,68.5,35.0,30.11,WSW,253,10.7,17.3,29,0.00,CLR,,0.00,WeatherDisplay:10.37,2013-04-26 20:15:00,
2013-04-26 15:17:00,68.6,35.1,30.11,SW,222,13.7,23.0,29,0.00,CLR,,0.00,WeatherDisplay:10.37,2013-04-26 20:17:00,
2013-04-26 15:18:00,68.7,36.0,30.11,SSW,208,14.9,17.0,30,0.00,CLR,,0.00,WeatherDisplay:10.37,2013-04-26 20:18:00,
2013-04-26 15:19:00,68.8,35.2,30.11,SW,223,13.5,26.5,29,0.00,CLR,,0.00,WeatherDisplay:10.37,2013-04-26 20:19:00,
2013-04-26 15:20:00,68.8,35.2,30.11,SSW,212,13.2,20.7,29,0.00,CLR,,0.00,WeatherDisplay:10.37,2013-04-26 20:20:00,
2013-04-26 15:22:00,69.1,35.5,30.11,SW,224,14.1,17.3,29,0.00,CLR,,0.00,WeatherDisplay:10.37,2013-04-26 20:22:00,
2013-04-26 15:24:00,69.3,35.7,30.11,South,178,13.6,19.6,29,0.00,CLR,,0.00,WeatherDisplay:10.37,2013-04-26 20:24:00,
2013-04-26 15:25:00,69.3,35.7,30.11,WSW,237,12.5,16.1,29,0.00,CLR,,0.00,WeatherDisplay:10.37,2013-04-26 20:25:00,
2013-04-26 15:27:00,69.3,35.7,30.11,SW,223,11.5,17.3,29,0.00,CLR,,0.00,WeatherDisplay:10.37,2013-04-26 20:27:00,
2013-04-26 15:29:00,69.1,34.6,30.11,SSW,210,15.3,19.6,28,0.00,CLR,,0.00,WeatherDisplay:10.37,2013-04-26 20:29:00,
2013-04-26 15:31:00,68.8,36.1,30.11,WSW,243,12.9,21.9,30,0.00,CLR,,0.00,WeatherDisplay:10.37,2013-04-26 20:31:00,
2013-04-26 15:32:00,68.8,36.1,30.11,SW,232,11.5,17.3,30,0.00,CLR,,0.00,WeatherDisplay:10.37,2013-04-26 20:32:00,
2013-04-26 15:34:00,68.7,36.0,30.11,WSW,244,10.8,19.6,30,0.00,CLR,,0.00,WeatherDisplay:10.37,2013-04-26 20:34:00,
2013-04-26 15:36:00,68.7,36.0,30.11,SW,226,10.2,20.7,30,0.00,CLR,,0.00,WeatherDisplay:10.37,2013-04-26 20:36:00,
2013-04-26 15:37:00,68.8,36.1,30.11,SW,220,9.2,13.8,30,0.00,CLR,,0.00,WeatherDisplay:10.37,2013-04-26 20:37:00,
2013-04-26 15:39:00,69.0,37.1,30.11,SW,226,12.7,18.4,31,0.00,CLR,,0.00,WeatherDisplay:10.37,2013-04-26 20:39:00,
2013-04-26 15:40:00,69.0,36.3,30.11,SW,216,14.5,19.9,30,0.00,CLR,,0.00,WeatherDisplay:10.37,2013-04-26 20:40:00,
2013-04-26 15:41:00,69.2,36.4,30.11,SW,224,11.9,23.0,30,0.00,CLR,,0.00,WeatherDisplay:10.37,2013-04-26 20:41:00,
2013-04-26 15:42:00,69.2,36.4,30.11,South,188,9.9,18.4,30,0.00,CLR,,0.00,WeatherDisplay:10.37,2013-04-26 20:42:00,
2013-04-26 15:43:00,69.3,37.3,30.11,WSW,240,9.5,15.0,31,0.00,CLR,,0.00,WeatherDisplay:10.37,2013-04-26 20:43:00,
2013-04-26 15:44:00,69.5,36.7,30.11,SW,236,12.9,18.4,30,0.00,CLR,,0.00,WeatherDisplay:10.37,2013-04-26 20:44:00,
2013-04-26 15:45:00,69.7,36.0,30.11,SW,219,12.1,18.4,29,0.00,CLR,,0.00,WeatherDisplay:10.37,2013-04-26 20:45:00,
2013-04-26 15:46:00,69.6,36.8,30.11,SW,230,13.6,17.4,30,0.00,CLR,,0.00,WeatherDisplay:10.37,2013-04-26 20:46:00,
2013-04-26 15:47:00,69.7,36.0,30.11,WSW,250,11.8,23.0,29,0.00,CLR,,0.00,WeatherDisplay:10.37,2013-04-26 20:47:00,
2013-04-26 15:48:00,69.7,36.0,30.11,SW,216,12.7,19.6,29,0.00,CLR,,0.00,WeatherDisplay:10.37,2013-04-26 20:48:00,
2013-04-26 15:50:00,69.8,36.1,30.11,WSW,244,13.2,20.7,29,0.00,CLR,,0.00,WeatherDisplay:10.37,2013-04-26 20:50:00,
2013-04-26 15:52:00,69.7,36.0,30.11,SW,216,14.6,23.0,29,0.00,CLR,,0.00,WeatherDisplay:10.37,2013-04-26 20:52:00,
2013-04-26 15:53:00,69.6,35.9,30.11,SSW,213,12.6,23.0,29,0.00,CLR,,0.00,WeatherDisplay:10.37,2013-04-26 20:53:00,
2013-04-26 15:55:00,69.6,37.6,30.11,SW,226,13.5,22.2,31,0.00,CLR,,0.00,WeatherDisplay:10.37,2013-04-26 20:55:00,
2013-04-26 15:57:00,69.6,36.8,30.11,West,264,11.0,21.9,30,0.00,CLR,,0.00,WeatherDisplay:10.37,2013-04-26 20:57:00,
2013-04-26 15:58:00,69.4,36.6,30.11,SW,233,12.8,18.4,30,0.00,CLR,,0.00,WeatherDisplay:10.37,2013-04-26 20:58:00,
2013-04-26 16:00:00,69.1,36.3,30.11,SW,230,14.5,27.6,30,0.00,CLR,,0.00,WeatherDisplay:10.37,2013-04-26 21:00:00,
2013-04-26 16:02:00,68.8,36.9,30.11,WSW,257,16.1,21.9,31,0.00,CLR,,0.00,WeatherDisplay:10.37,2013-04-26 21:02:00,
2013-04-26 16:03:00,68.7,36.8,30.11,SW,230,14.2,20.7,31,0.00,CLR,,0.00,WeatherDisplay:10.37,2013-04-26 21:03:00,
2013-04-26 16:04:00,68.5,36.7,30.11,South,185,11.2,16.1,31,0.00,CLR,,0.00,WeatherDisplay:10.37,2013-04-26 21:04:00,
2013-04-26 16:05:00,68.4,36.6,30.11,SSW,210,11.9,20.7,31,0.00,CLR,,0.00,WeatherDisplay:10.37,2013-04-26 21:05:00,
2013-04-26 16:06:00,68.4,36.6,30.11,WSW,237,11.6,18.4,31,0.00,CLR,,0.00,WeatherDisplay:10.37,2013-04-26 21:06:00,
2013-04-26 16:07:00,68.2,37.2,30.11,SW,226,9.2,15.0,32,0.00,CLR,,0.00,WeatherDisplay:10.37,2013-04-26 21:07:00,
2013-04-26 16:08:00,68.0,36.2,30.11,SW,220,14.8,21.9,31,0.00,CLR,,0.00,WeatherDisplay:10.37,2013-04-26 21:08:00,
2013-04-26 16:09:00,68.0,37.0,30.11,WSW,253,13.5,17.3,32,0.00,CLR,,0.00,WeatherDisplay:10.37,2013-04-26 21:09:00,
2013-04-26 16:10:00,67.8,36.8,30.11,SW,233,16.9,25.3,32,0.00,CLR,,0.00,WeatherDisplay:10.37,2013-04-26 21:10:00,
2013-04-26 16:11:00,67.4,35.7,30.11,SW,227,16.5,28.8,31,0.00,CLR,,0.00,WeatherDisplay:10.37,2013-04-26 21:11:00,
2013-04-26 16:12:00,67.5,36.6,30.11,SW,219,9.3,23.0,32,0.00,CLR,,0.00,WeatherDisplay:10.37,2013-04-26 21:12:00,
2013-04-26 16:13:00,67.5,37.4,30.11,SW,230,8.0,12.7,33,0.00,CLR,,0.00,WeatherDisplay:10.37,2013-04-26 21:13:00,
2013-04-26 16:14:00,67.4,37.3,30.11,SW,220,12.5,18.4,33,0.00,CLR,,0.00,WeatherDisplay:10.37,2013-04-26 21:14:00,
2013-04-26 16:15:00,67.3,37.2,30.11,SSW,209,13.7,19.8,33,0.00,CLR,,0.00,WeatherDisplay:10.37,2013-04-26 21:15:00,
2013-04-26 16:16:00,67.2,37.1,30.11,SW,216,14.8,24.2,33,0.00,CLR,,0.00,WeatherDisplay:10.37,2013-04-26 21:16:00,
2013-04-26 16:17:00,67.2,37.1,30.11,SW,230,15.6,19.6,33,0.00,CLR,,0.00,WeatherDisplay:10.37,2013-04-26 21:17:00,
2013-04-26 16:18:00,67.2,37.9,30.11,SW,229,13.6,25.3,34,0.00,CLR,,0.00,WeatherDisplay:10.37,2013-04-26 21:18:00,
2013-04-26 16:19:00,67.2,37.9,30.11,SW,236,14.9,24.2,34,0.00,CLR,,0.00,WeatherDisplay:10.37,2013-04-26 21:19:00,
2013-04-26 16:20:00,67.4,36.5,30.11,WSW,256,13.5,19.6,32,0.00,CLR,,0.00,WeatherDisplay:10.37,2013-04-26 21:20:00,
2013-04-26 16:21:00,67.4,36.5,30.11,SSW,202,11.8,19.6,32,0.00,CLR,,0.00,WeatherDisplay:10.37,2013-04-26 21:21:00,
2013-04-26 16:22:00,67.5,36.6,30.11,West,275,13.6,23.0,32,0.00,CLR,,0.00,WeatherDisplay:10.37,2013-04-26 21:22:00,
2013-04-26 16:23:00,67.4,37.3,30.11,WSW,243,14.0,23.0,33,0.00,CLR,,0.00,WeatherDisplay:10.37,2013-04-26 21:23:00,
2013-04-26 16:24:00,67.4,37.3,30.11,WSW,251,11.1,20.7,33,0.00,CLR,,0.00,WeatherDisplay:10.37,2013-04-26 21:24:00,
2013-04-26 16:26:00,67.6,38.2,30.11,SW,216,12.4,19.6,34,0.00,CLR,,0.00,WeatherDisplay:10.37,2013-04-26 21:26:00,
2013-04-26 16:27:00,67.9,37.7,30.11,SW,234,13.6,21.9,33,0.00,CLR,,0.00,WeatherDisplay:10.37,2013-04-26 21:27:00,
2013-04-26 16:28:00,67.8,36.8,30.11,West,261,11.9,21.9,32,0.00,CLR,,0.00,WeatherDisplay:10.37,2013-04-26 21:28:00,
2013-04-26 16:29:00,67.8,36.8,30.11,SW,227,11.6,18.4,32,0.00,CLR,,0.00,WeatherDisplay:10.37,2013-04-26 21:29:00,
2013-04-26 16:31:00,67.8,37.6,30.11,SW,234,13.2,17.3,33,0.00,CLR,,0.00,WeatherDisplay:10.37,2013-04-26 21:31:00,
2013-04-26 16:33:00,67.7,36.8,30.11,SSW,209,14.8,15.0,32,0.00,CLR,,0.00,WeatherDisplay:10.37,2013-04-26 21:33:00,
2013-04-26 16:34:00,67.7,36.8,30.11,SW,217,15.9,26.5,32,0.00,CLR,,0.00,WeatherDisplay:10.37,2013-04-26 21:34:00,
2013-04-26 16:36:00,68.1,37.1,30.11,SW,219,17.2,24.2,32,0.00,CLR,,0.00,WeatherDisplay:10.37,2013-04-26 21:36:00,
2013-04-26 16:39:00,68.1,36.3,30.11,SW,234,14.5,26.5,31,0.00,CLR,,0.00,WeatherDisplay:10.37,2013-04-26 21:39:00,
2013-04-26 16:40:00,68.3,37.3,30.11,WSW,250,11.4,25.3,32,0.00,CLR,,0.00,WeatherDisplay:10.37,2013-04-26 21:40:00,
2013-04-26 16:42:00,68.4,36.6,30.11,WSW,250,14.7,23.0,31,0.00,CLR,,0.00,WeatherDisplay:10.37,2013-04-26 21:42:00,
2013-04-26 16:44:00,68.6,37.5,30.11,West,280,10.0,15.0,32,0.00,CLR,,0.00,WeatherDisplay:10.37,2013-04-26 21:44:00,
2013-04-26 16:46:00,68.8,36.9,30.11,SW,234,11.9,17.3,31,0.00,CLR,,0.00,WeatherDisplay:10.37,2013-04-26 21:46:00,
2013-04-26 16:47:00,68.8,36.9,30.11,WSW,240,8.9,16.1,31,0.00,CLR,,0.00,WeatherDisplay:10.37,2013-04-26 21:47:00,
2013-04-26 16:49:00,68.8,36.1,30.11,SSW,208,13.3,17.3,30,0.00,CLR,,0.00,WeatherDisplay:10.37,2013-04-26 21:49:00,
2013-04-26 16:51:00,68.8,36.1,30.11,SW,215,12.1,19.6,30,0.00,CLR,,0.00,WeatherDisplay:10.37,2013-04-26 21:51:00,
2013-04-26 16:52:00,68.6,35.9,30.11,SW,222,13.9,19.6,30,0.00,CLR,,0.00,WeatherDisplay:10.37,2013-04-26 21:52:00,
2013-04-26 16:54:00,68.6,35.9,30.11,SW,219,12.5,18.4,30,0.00,CLR,,0.00,WeatherDisplay:10.37,2013-04-26 21:54:00,
2013-04-26 16:55:00,68.5,35.0,30.11,SW,220,12.6,18.4,29,0.00,CLR,,0.00,WeatherDisplay:10.37,2013-04-26 21:55:00,
2013-04-26 16:56:00,68.4,35.7,30.11,SW,216,13.5,17.3,30,0.00,CLR,,0.00,WeatherDisplay:10.37,2013-04-26 21:56:00,
2013-04-26 16:57:00,68.1,35.5,30.11,SW,219,11.5,18.4,30,0.00,CLR,,0.00,WeatherDisplay:10.37,2013-04-26 21:57:00,
2013-04-26 16:59:00,67.7,36.0,30.11,West,268,8.6,18.4,31,0.00,CLR,,0.00,WeatherDisplay:10.37,2013-04-26 21:59:00,
2013-04-26 17:00:00,67.5,35.8,30.11,SW,216,9.3,14.6,31,0.00,CLR,,0.00,WeatherDisplay:10.37,2013-04-26 22:00:00,
2013-04-26 17:01:00,67.5,36.6,30.11,WSW,251,9.2,16.1,32,0.00,CLR,,0.00,WeatherDisplay:10.37,2013-04-26 22:01:00,
2013-04-26 17:02:00,67.4,36.5,30.11,SW,233,12.6,19.6,32,0.00,CLR,,0.00,WeatherDisplay:10.37,2013-04-26 22:02:00,
2013-04-26 17:03:00,67.4,36.5,30.11,WSW,243,11.7,19.6,32,0.00,CLR,,0.00,WeatherDisplay:10.37,2013-04-26 22:03:00,
2013-04-26 17:05:00,67.4,35.7,30.11,SW,233,10.6,13.8,31,0.00,CLR,,0.00,WeatherDisplay:10.37,2013-04-26 22:05:00,
2013-04-26 17:06:00,67.4,35.7,30.11,WSW,253,11.3,25.3,31,0.00,CLR,,0.00,WeatherDisplay:10.37,2013-04-26 22:06:00,
2013-04-26 17:08:00,67.3,34.8,30.11,West,265,12.3,23.0,30,0.00,CLR,,0.00,WeatherDisplay:10.37,2013-04-26 22:08:00,
2013-04-26 17:10:00,67.1,35.4,30.11,West,264,10.1,20.7,31,0.00,CLR,,0.00,WeatherDisplay:10.37,2013-04-26 22:10:00,
2013-04-26 17:12:00,66.9,36.1,30.11,SSW,193,9.7,13.8,32,0.00,CLR,,0.00,WeatherDisplay:10.37,2013-04-26 22:12:00,
2013-04-26 17:13:00,66.8,36.0,30.11,WSW,253,10.4,18.0,32,0.00,CLR,,0.00,WeatherDisplay:10.37,2013-04-26 22:13:00,
2013-04-26 17:15:00,66.4,36.4,30.11,SSW,213,12.1,18.4,33,0.00,CLR,,0.00,WeatherDisplay:10.37,2013-04-26 22:15:00,
2013-04-26 17:16:00,66.4,36.4,30.12,SW,220,10.7,15.0,33,0.00,CLR,,0.00,WeatherDisplay:10.37,2013-04-26 22:16:00,
2013-04-26 17:17:00,66.4,36.4,30.11,SW,232,9.7,13.8,33,0.00,CLR,,0.00,WeatherDisplay:10.37,2013-04-26 22:17:00,
2013-04-26 17:18:00,66.4,36.4,30.12,SW,236,10.7,15.3,33,0.00,CLR,,0.00,WeatherDisplay:10.37,2013-04-26 22:18:00,
2013-04-26 17:19:00,66.4,36.4,30.12,SSW,209,13.1,22.8,33,0.00,CLR,,0.00,WeatherDisplay:10.37,2013-04-26 22:19:00,
2013-04-26 17:20:00,66.8,36.8,30.12,SSW,206,12.7,21.9,33,0.00,CLR,,0.00,WeatherDisplay:10.37,2013-04-26 22:20:00,
2013-04-26 17:21:00,66.7,36.7,30.12,SW,215,11.4,18.4,33,0.00,CLR,,0.00,WeatherDisplay:10.37,2013-04-26 22:21:00,
2013-04-26 17:22:00,66.7,35.9,30.12,SW,230,11.5,18.4,32,0.00,CLR,,0.00,WeatherDisplay:10.37,2013-04-26 22:22:00,
2013-04-26 17:23:00,67.0,36.1,30.12,West,260,10.3,16.1,32,0.00,CLR,,0.00,WeatherDisplay:10.37,2013-04-26 22:23:00,
2013-04-26 17:24:00,67.0,36.1,30.12,WSW,241,9.8,16.1,32,0.00,CLR,,0.00,WeatherDisplay:10.37,2013-04-26 22:24:00,
2013-04-26 17:25:00,67.1,35.4,30.11,SW,229,16.1,16.1,31,0.00,CLR,,0.00,WeatherDisplay:10.37,2013-04-26 22:25:00,
2013-04-26 17:27:00,67.2,34.7,30.12,SSW,195,11.2,18.8,30,0.00,CLR,,0.00,WeatherDisplay:10.37,2013-04-26 22:27:00,
2013-04-26 17:29:00,67.3,34.8,30.12,SSW,198,9.1,16.1,30,0.00,CLR,,0.00,WeatherDisplay:10.37,2013-04-26 22:29:00,
2013-04-26 17:31:00,67.3,33.9,30.11,SSW,212,15.7,25.3,29,0.00,CLR,,0.00,WeatherDisplay:10.37,2013-04-26 22:31:00,
2013-04-26 17:32:00,67.2,33.8,30.12,WSW,254,15.9,31.1,29,0.00,CLR,,0.00,WeatherDisplay:10.37,2013-04-26 22:32:00,
2013-04-26 17:34:00,67.1,33.8,30.12,West,274,12.5,21.2,29,0.00,CLR,,0.00,WeatherDisplay:10.37,2013-04-26 22:34:00,
2013-04-26 17:35:00,67.1,33.8,30.12,SW,223,15.2,24.2,29,0.00,CLR,,0.00,WeatherDisplay:10.37,2013-04-26 22:35:00,
2013-04-26 17:36:00,67.0,33.7,30.12,SW,217,11.2,24.2,29,0.00,CLR,,0.00,WeatherDisplay:10.37,2013-04-26 22:36:00,
2013-04-26 17:37:00,66.8,34.3,30.12,South,191,10.4,16.1,30,0.00,CLR,,0.00,WeatherDisplay:10.37,2013-04-26 22:37:00,
2013-04-26 17:39:00,66.8,34.3,30.12,SW,236,13.0,17.3,30,0.00,CLR,,0.00,WeatherDisplay:10.37,2013-04-26 22:39:00,
2013-04-26 17:40:00,66.8,34.3,30.12,SW,223,12.9,26.2,30,0.00,CLR,,0.00,WeatherDisplay:10.37,2013-04-26 22:40:00,
2013-04-26 17:41:00,66.6,35.0,30.12,SSW,192,12.9,26.5,31,0.00,CLR,,0.00,WeatherDisplay:10.37,2013-04-26 22:41:00,
2013-04-26 17:42:00,66.7,35.1,30.12,SW,227,10.7,19.6,31,0.00,CLR,,0.00,WeatherDisplay:10.37,2013-04-26 22:42:00,
2013-04-26 17:45:00,66.4,35.6,30.12,SW,234,11.2,20.7,32,0.00,CLR,,0.00,WeatherDisplay:10.37,2013-04-26 22:45:00,
2013-04-26 17:46:00,66.5,34.9,30.12,SW,229,9.6,16.1,31,0.00,CLR,,0.00,WeatherDisplay:10.37,2013-04-26 22:46:00,
2013-04-26 17:47:00,66.5,34.9,30.12,WSW,253,10.5,16.1,31,0.00,CLR,,0.00,WeatherDisplay:10.37,2013-04-26 22:47:00,
2013-04-26 17:48:00,66.4,34.8,30.12,WSW,248,9.0,13.8,31,0.00,CLR,,0.00,WeatherDisplay:10.37,2013-04-26 22:48:00,
2013-04-26 17:50:00,66.4,35.6,30.12,WSW,250,9.8,15.5,32,0.00,CLR,,0.00,WeatherDisplay:10.37,2013-04-26 22:50:00,
2013-04-26 17:52:00,66.6,35.0,30.12,WSW,258,8.6,15.0,31,0.00,CLR,,0.00,WeatherDisplay:10.37,2013-04-26 22:52:00,
2013-04-26 17:53:00,66.4,34.8,30.12,SW,216,10.2,17.3,31,0.00,CLR,,0.00,WeatherDisplay:10.37,2013-04-26 22:53:00,
2013-04-26 17:55:00,66.3,34.7,30.12,West,261,11.4,19.6,31,0.00,CLR,,0.00,WeatherDisplay:10.37,2013-04-26 22:55:00,
2013-04-26 17:57:00,66.2,34.7,30.12,SW,234,11.1,17.3,31,0.00,CLR,,0.00,WeatherDisplay:10.37,2013-04-26 22:57:00,
2013-04-26 17:58:00,66.2,34.7,30.12,SSW,210,12.6,19.6,31,0.00,CLR,,0.00,WeatherDisplay:10.37,2013-04-26 22:58:00,
2013-04-26 18:00:00,66.1,35.4,30.12,SW,227,12.0,17.3,32,0.00,CLR,,0.00,WeatherDisplay:10.37,2013-04-26 23:00:00,
2013-04-26 18:02:00,66.0,34.5,30.12,SW,230,12.1,23.0,31,0.00,CLR,,0.00,WeatherDisplay:10.37,2013-04-26 23:02:00,
2013-04-26 18:03:00,65.8,35.1,30.12,SSW,206,13.1,19.6,32,0.00,CLR,,0.00,WeatherDisplay:10.37,2013-04-26 23:03:00,
2013-04-26 18:05:00,65.7,35.0,30.12,WNW,291,11.4,19.6,32,0.00,CLR,,0.00,WeatherDisplay:10.37,2013-04-26 23:05:00,
2013-04-26 18:07:00,65.7,35.0,30.12,SW,215,7.1,12.1,32,0.00,CLR,,0.00,WeatherDisplay:10.37,2013-04-26 23:07:00,
2013-04-26 18:08:00,65.7,35.0,30.12,SW,220,9.9,18.4,32,0.00,CLR,,0.00,WeatherDisplay:10.37,2013-04-26 23:08:00,
2013-04-26 18:09:00,65.7,35.8,30.12,SSW,212,8.9,16.1,33,0.00,CLR,,0.00,WeatherDisplay:10.37,2013-04-26 23:09:00,
2013-04-26 18:10:00,65.8,35.9,30.12,SSW,212,8.5,12.7,33,0.00,CLR,,0.00,WeatherDisplay:10.37,2013-04-26 23:10:00,
2013-04-26 18:12:00,65.7,35.0,30.12,WSW,251,9.8,13.8,32,0.00,CLR,,0.00,WeatherDisplay:10.37,2013-04-26 23:12:00,
2013-04-26 18:14:00,65.6,34.9,30.12,WSW,244,11.3,17.3,32,0.00,CLR,,0.00,WeatherDisplay:10.37,2013-04-26 23:14:00,
2013-04-26 18:15:00,65.4,34.8,30.12,SW,226,10.9,17.3,32,0.00,CLR,,0.00,WeatherDisplay:10.37,2013-04-26 23:15:00,
2013-04-26 18:16:00,65.5,35.6,30.12,West,264,9.9,15.0,33,0.00,CLR,,0.00,WeatherDisplay:10.37,2013-04-26 23:16:00,
2013-04-26 18:17:00,65.5,35.6,30.12,SSW,209,11.5,16.1,33,0.00,CLR,,0.00,WeatherDisplay:10.37,2013-04-26 23:17:00,
2013-04-26 18:19:00,65.2,35.4,30.12,SW,217,8.6,16.1,33,0.00,CLR,,0.00,WeatherDisplay:10.37,2013-04-26 23:19:00,
2013-04-26 18:20:00,65.1,35.3,30.12,SW,220,10.8,15.0,33,0.00,CLR,,0.00,WeatherDisplay:10.37,2013-04-26 23:20:00,
2013-04-26 18:21:00,65.1,35.3,30.12,West,270,9.4,17.3,33,0.00,CLR,,0.00,WeatherDisplay:10.37,2013-04-26 23:21:00,
2013-04-26 18:23:00,64.9,35.8,30.12,SW,226,8.5,19.6,34,0.00,CLR,,0.00,WeatherDisplay:10.37,2013-04-26 23:23:00,
2013-04-26 18:24:00,65.0,35.9,30.12,SW,229,12.2,18.4,34,0.00,CLR,,0.00,WeatherDisplay:10.37,2013-04-26 23:24:00,
2013-04-26 18:25:00,64.8,35.8,30.13,SW,220,9.7,17.3,34,0.00,CLR,,0.00,WeatherDisplay:10.37,2013-04-26 23:25:00,
2013-04-26 18:26:00,64.9,35.8,30.13,WSW,240,14.8,23.0,34,0.00,CLR,,0.00,WeatherDisplay:10.37,2013-04-26 23:26:00,
2013-04-26 18:29:00,64.9,35.8,30.13,SW,224,12.2,20.7,34,0.00,CLR,,0.00,WeatherDisplay:10.37,2013-04-26 23:29:00,
2013-04-26 18:30:00,64.7,35.7,30.12,WSW,246,13.8,19.6,34,0.00,CLR,,0.00,WeatherDisplay:10.37,2013-04-26 23:30:00,
2013-04-26 18:31:00,64.7,35.7,30.12,WSW,246,13.8,19.6,34,0.00,CLR,,0.00,WeatherDisplay:10.37,2013-04-26 23:31:00,
2013-04-26 18:34:00,64.6,35.6,30.12,SW,215,10.2,18.4,34,0.00,CLR,,0.00,WeatherDisplay:10.37,2013-04-26 23:34:00,
2013-04-26 18:36:00,64.6,35.6,30.12,SW,219,10.7,21.9,34,0.00,CLR,,0.00,WeatherDisplay:10.37,2013-04-26 23:36:00,
2013-04-26 18:39:00,64.4,35.4,30.13,SW,222,10.9,16.2,34,0.00,CLR,,0.00,WeatherDisplay:10.37,2013-04-26 23:39:00,
2013-04-26 18:41:00,64.4,36.1,30.13,West,267,11.1,13.8,35,0.00,CLR,,0.00,WeatherDisplay:10.37,2013-04-26 23:41:00,
2013-04-26 18:44:00,64.3,36.0,30.13,SW,219,10.1,12.7,35,0.00,CLR,,0.00,WeatherDisplay:10.37,2013-04-26 23:44:00,
2013-04-26 18:46:00,64.2,36.0,30.13,SW,232,11.3,15.7,35,0.00,CLR,,0.00,WeatherDisplay:10.37,2013-04-26 23:46:00,
2013-04-26 18:50:00,64.0,35.8,30.13,SSW,196,12.7,18.4,35,0.00,CLR,,0.00,WeatherDisplay:10.37,2013-04-26 23:50:00,
2013-04-26 18:51:00,63.8,35.6,30.13,SSW,206,12.8,18.4,35,0.00,CLR,,0.00,WeatherDisplay:10.37,2013-04-26 23:51:00,
2013-04-26 18:52:00,63.8,36.3,30.13,SW,216,13.1,17.3,36,0.00,CLR,,0.00,WeatherDisplay:10.37,2013-04-26 23:52:00,
2013-04-26 19:05:00,62.8,36.1,30.14,WSW,239,9.4,19.6,37,0.00,CLR,,0.00,WeatherDisplay:10.37,2013-04-27 00:05:00,
2013-04-26 19:06:00,62.6,36.6,30.14,SW,216,11.5,16.1,38,0.00,CLR,,0.00,WeatherDisplay:10.37,2013-04-27 00:06:00,
2013-04-26 19:07:00,62.6,36.6,30.14,SW,219,10.6,15.0,38,0.00,CLR,,0.00,WeatherDisplay:10.37,2013-04-27 00:07:00,
2013-04-26 19:10:00,62.4,36.4,30.14,SW,217,7.5,12.7,38,0.00,CLR,,0.00,WeatherDisplay:10.37,2013-04-27 00:10:00,
2013-04-26 19:11:00,62.2,36.3,30.14,SW,236,7.7,11.1,38,0.00,CLR,,0.00,WeatherDisplay:10.37,2013-04-27 00:11:00,
2013-04-26 19:12:00,62.3,36.4,30.14,SW,215,8.8,12.7,38,0.00,CLR,,0.00,WeatherDisplay:10.37,2013-04-27 00:12:00,
2013-04-26 19:16:00,62.0,36.7,30.14,SSW,213,12.3,16.1,39,0.00,CLR,,0.00,WeatherDisplay:10.37,2013-04-27 00:16:00,
2013-04-26 19:17:00,61.8,36.6,30.14,SW,229,9.8,19.6,39,0.00,CLR,,0.00,WeatherDisplay:10.37,2013-04-27 00:17:00,
2013-04-26 19:21:00,61.5,36.3,30.14,SW,222,10.6,18.4,39,0.00,CLR,,0.00,WeatherDisplay:10.37,2013-04-27 00:21:00,
2013-04-26 19:22:00,61.3,36.1,30.14,WSW,248,8.3,11.3,39,0.00,CLR,,0.00,WeatherDisplay:10.37,2013-04-27 00:22:00,
2013-04-26 19:23:00,61.3,36.8,30.14,SW,222,11.4,17.3,40,0.00,CLR,,0.00,WeatherDisplay:10.37,2013-04-27 00:23:00,
2013-04-26 19:26:00,60.8,36.3,30.14,WSW,239,10.1,15.0,40,0.00,CLR,,0.00,WeatherDisplay:10.37,2013-04-27 00:26:00,
2013-04-26 19:27:00,60.9,36.4,30.14,SSW,213,11.0,18.2,40,0.00,CLR,,0.00,WeatherDisplay:10.37,2013-04-27 00:27:00,
2013-04-26 19:28:00,60.6,36.1,30.14,WSW,253,11.1,18.4,40,0.00,CLR,,0.00,WeatherDisplay:10.37,2013-04-27 00:28:00,
2013-04-26 19:31:00,60.4,36.6,30.14,South,186,8.7,17.3,41,0.00,CLR,,0.00,WeatherDisplay:10.37,2013-04-27 00:31:00,
2013-04-26 19:32:00,60.3,36.5,30.14,SW,223,8.1,15.0,41,0.00,CLR,,0.00,WeatherDisplay:10.37,2013-04-27 00:32:00,
2013-04-26 19:33:00,60.3,36.5,30.14,SSW,212,8.6,12.7,41,0.00,CLR,,0.00,WeatherDisplay:10.37,2013-04-27 00:33:00,
2013-04-26 19:37:00,59.9,36.1,30.14,West,264,10.8,16.1,41,0.00,CLR,,0.00,WeatherDisplay:10.37,2013-04-27 00:37:00,
2013-04-26 19:38:00,59.7,36.6,30.14,WSW,254,10.5,15.0,42,0.00,CLR,,0.00,WeatherDisplay:10.37,2013-04-27 00:38:00,
2013-04-26 19:42:00,59.5,36.4,30.14,SW,223,9.9,12.7,42,0.00,CLR,,0.00,WeatherDisplay:10.37,2013-04-27 00:42:00,
2013-04-26 19:43:00,59.5,36.4,30.14,SW,222,8.4,12.7,42,0.00,CLR,,0.00,WeatherDisplay:10.37,2013-04-27 00:43:00,
2013-04-26 19:47:00,59.3,36.8,30.15,SW,226,8.7,10.4,43,0.00,CLR,,0.00,WeatherDisplay:10.37,2013-04-27 00:47:00,
2013-04-26 19:48:00,59.2,36.7,30.15,SW,216,7.4,11.5,43,0.00,CLR,,0.00,WeatherDisplay:10.37,2013-04-27 00:48:00,
2013-04-26 19:49:00,59.3,36.8,30.15,SSW,209,8.2,10.4,43,0.00,CLR,,0.00,WeatherDisplay:10.37,2013-04-27 00:49:00,
2013-04-26 19:52:00,59.0,36.5,30.15,SW,236,8.8,10.4,43,0.00,CLR,,0.00,WeatherDisplay:10.37,2013-04-27 00:52:00,
2013-04-26 19:53:00,58.9,37.0,30.15,SSW,209,9.0,11.5,44,0.00,CLR,,0.00,WeatherDisplay:10.37,2013-04-27 00:53:00,
2013-04-26 19:54:00,58.9,37.0,30.15,SSW,213,8.5,11.5,44,0.00,CLR,,0.00,WeatherDisplay:10.37,2013-04-27 00:54:00,
2013-04-26 19:57:00,58.7,36.8,30.15,WSW,246,7.6,11.5,44,0.00,CLR,,0.00,WeatherDisplay:10.37,2013-04-27 00:57:00,
2013-04-26 19:58:00,58.7,36.8,30.15,SW,232,7.0,9.2,44,0.00,CLR,,0.00,WeatherDisplay:10.37,2013-04-27 00:58:00,
2013-04-26 19:59:00,58.5,36.6,30.15,SSW,192,6.8,12.7,44,0.00,CLR,,0.00,WeatherDisplay:10.37,2013-04-27 00:59:00,
2013-04-26 20:02:00,58.4,37.1,30.15,SSW,203,9.2,12.7,45,0.00,CLR,,0.00,WeatherDisplay:10.37,2013-04-27 01:02:00,
2013-04-26 20:03:00,58.5,37.2,30.15,SSW,209,8.8,12.7,45,0.00,CLR,,0.00,WeatherDisplay:10.37,2013-04-27 01:03:00,
2013-04-26 20:04:00,58.4,37.1,30.15,SSW,208,9.6,12.4,45,0.00,CLR,,0.00,WeatherDisplay:10.37,2013-04-27 01:04:00,
2013-04-26 20:05:00,58.4,37.1,30.15,SW,236,8.8,12.7,45,0.00,CLR,,0.00,WeatherDisplay:10.37,2013-04-27 01:05:00,
2013-04-26 20:07:00,58.3,37.0,30.15,SW,227,7.9,13.8,45,0.00,CLR,,0.00,WeatherDisplay:10.37,2013-04-27 01:07:00,
2013-04-26 20:08:00,58.3,37.0,30.15,SW,224,7.8,13.8,45,0.00,CLR,,0.00,WeatherDisplay:10.37,2013-04-27 01:08:00,
2013-04-26 20:09:00,58.2,37.5,30.15,SW,222,8.3,10.4,46,0.00,CLR,,0.00,WeatherDisplay:10.37,2013-04-27 01:09:00,
2013-04-26 20:10:00,58.2,37.5,30.16,South,184,7.5,11.5,46,0.00,CLR,,0.00,WeatherDisplay:10.37,2013-04-27 01:10:00,
2013-04-26 20:13:00,58.1,37.4,30.16,SW,216,7.9,11.5,46,0.00,CLR,,0.00,WeatherDisplay:10.37,2013-04-27 01:13:00,
2013-04-26 20:14:00,58.0,37.3,30.16,SSW,212,8.5,15.0,46,0.00,CLR,,0.00,WeatherDisplay:10.37,2013-04-27 01:14:00,
2013-04-26 20:15:00,57.9,37.2,30.16,SW,233,9.1,12.7,46,0.00,CLR,,0.00,WeatherDisplay:10.37,2013-04-27 01:15:00,
2013-04-26 20:18:00,57.9,37.8,30.16,SW,229,8.6,11.7,47,0.00,CLR,,0.00,WeatherDisplay:10.37,2013-04-27 01:18:00,
2013-04-26 20:19:00,57.9,37.8,30.16,WSW,251,8.5,13.8,47,0.00,CLR,,0.00,WeatherDisplay:10.37,2013-04-27 01:19:00,
2013-04-26 20:20:00,57.8,37.7,30.16,SW,233,8.3,10.4,47,0.00,CLR,,0.00,WeatherDisplay:10.37,2013-04-27 01:20:00,
2013-04-26 20:23:00,57.6,37.5,30.16,SW,230,9.9,13.8,47,0.00,CLR,,0.00,WeatherDisplay:10.37,2013-04-27 01:23:00,
2013-04-26 20:24:00,57.6,38.0,30.16,SSW,199,8.3,13.8,48,0.00,CLR,,0.00,WeatherDisplay:10.37,2013-04-27 01:24:00,
2013-04-26 20:25:00,57.5,37.4,30.16,SW,227,7.8,11.5,47,0.00,CLR,,0.00,WeatherDisplay:10.37,2013-04-27 01:25:00,
2013-04-26 20:29:00,57.4,37.9,30.16,SW,224,9.5,15.0,48,0.00,CLR,,0.00,WeatherDisplay:10.37,2013-04-27 01:29:00,
2013-04-26 20:30:00,57.4,37.9,30.16,SSW,210,9.3,15.3,48,0.00,CLR,,0.00,WeatherDisplay:10.37,2013-04-27 01:30:00,
2013-04-26 20:34:00,57.3,37.8,30.17,SW,224,7.6,10.4,48,0.00,CLR,,0.00,WeatherDisplay:10.37,2013-04-27 01:34:00,
2013-04-26 20:35:00,57.2,37.7,30.17,SSW,206,7.5,11.5,48,0.00,CLR,,0.00,WeatherDisplay:10.37,2013-04-27 01:35:00,
2013-04-26 20:36:00,57.3,37.8,30.17,SSW,195,9.7,13.8,48,0.00,CLR,,0.00,WeatherDisplay:10.37,2013-04-27 01:36:00,
2013-04-26 20:39:00,57.1,37.6,30.17,SSW,210,9.3,19.3,48,0.00,CLR,,0.00,WeatherDisplay:10.37,2013-04-27 01:39:00,
2013-04-26 20:40:00,57.2,38.2,30.17,SSW,203,9.9,19.6,49,0.00,CLR,,0.00,WeatherDisplay:10.37,2013-04-27 01:40:00,
2013-04-26 20:41:00,57.1,38.1,30.17,SW,223,8.2,11.5,49,0.00,CLR,,0.00,WeatherDisplay:10.37,2013-04-27 01:41:00,
2013-04-26 20:44:00,57.0,38.0,30.17,SW,224,8.2,12.7,49,0.00,CLR,,0.00,WeatherDisplay:10.37,2013-04-27 01:44:00,
2013-04-26 20:45:00,56.9,37.9,30.17,SW,224,10.2,12.7,49,0.00,CLR,,0.00,WeatherDisplay:10.37,2013-04-27 01:45:00,
2013-04-26 20:46:00,56.9,37.9,30.17,SW,223,9.8,13.8,49,0.00,CLR,,0.00,WeatherDisplay:10.37,2013-04-27 01:46:00,
2013-04-26 20:49:00,56.9,37.9,30.17,SW,226,9.3,18.0,49,0.00,CLR,,0.00,WeatherDisplay:10.37,2013-04-27 01:49:00,
2013-04-26 20:50:00,56.8,37.8,30.17,SW,236,11.7,18.4,49,0.00,CLR,,0.00,WeatherDisplay:10.37,2013-04-27 01:50:00,
2013-04-26 20:51:00,56.9,37.9,30.18,West,281,9.3,16.1,49,0.00,CLR,,0.00,WeatherDisplay:10.37,2013-04-27 01:51:00,
2013-04-26 20:55:00,56.8,37.8,30.18,West,263,9.9,15.0,49,0.00,CLR,,0.00,WeatherDisplay:10.37,2013-04-27 01:55:00,
2013-04-26 20:56:00,56.8,38.3,30.18,SW,220,9.3,12.7,50,0.00,CLR,,0.00,WeatherDisplay:10.37,2013-04-27 01:56:00,
2013-04-26 20:57:00,56.8,37.8,30.18,WSW,239,8.8,16.1,49,0.00,CLR,,0.00,WeatherDisplay:10.37,2013-04-27 01:57:00,
2013-04-26 21:00:00,56.7,38.3,30.18,SSW,208,10.2,15.0,50,0.00,CLR,,0.00,WeatherDisplay:10.37,2013-04-27 02:00:00,
2013-04-26 21:01:00,56.7,38.3,30.18,SW,224,8.8,16.7,50,0.00,CLR,,0.00,WeatherDisplay:10.37,2013-04-27 02:01:00,
2013-04-26 21:02:00,56.7,38.3,30.18,SW,217,10.5,16.1,50,0.00,CLR,,0.00,WeatherDisplay:10.37,2013-04-27 02:02:00,
2013-04-26 21:05:00,56.5,38.1,30.18,SW,233,7.3,17.3,50,0.00,CLR,,0.00,WeatherDisplay:10.37,2013-04-27 02:05:00,
2013-04-26 21:06:00,56.4,38.0,30.18,SW,227,8.1,12.1,50,0.00,CLR,,0.00,WeatherDisplay:10.37,2013-04-27 02:06:00,
2013-04-26 21:08:00,56.4,38.0,30.18,WSW,253,6.9,10.4,50,0.00,CLR,,0.00,WeatherDisplay:10.37,2013-04-27 02:08:00,
2013-04-26 21:10:00,56.3,37.9,30.18,SSW,210,6.0,10.4,50,0.00,CLR,,0.00,WeatherDisplay:10.37,2013-04-27 02:10:00,
2013-04-26 21:11:00,56.3,37.9,30.18,SSW,199,6.0,8.1,50,0.00,CLR,,0.00,WeatherDisplay:10.37,2013-04-27 02:11:00,
2013-04-26 21:13:00,56.2,38.3,30.18,SW,227,7.4,10.4,51,0.00,CLR,,0.00,WeatherDisplay:10.37,2013-04-27 02:13:00,
2013-04-26 21:15:00,56.1,38.2,30.19,SW,219,6.4,9.2,51,0.00,CLR,,0.00,WeatherDisplay:10.37,2013-04-27 02:15:00,
2013-04-26 21:16:00,56.1,38.2,30.19,SW,234,6.6,9.4,51,0.00,CLR,,0.00,WeatherDisplay:10.37,2013-04-27 02:16:00,
2013-04-26 21:17:00,56.1,38.2,30.19,South,189,8.6,11.5,51,0.00,CLR,,0.00,WeatherDisplay:10.37,2013-04-27 02:17:00,
2013-04-26 21:18:00,56.1,38.2,30.19,SSW,196,8.1,15.0,51,0.00,CLR,,0.00,WeatherDisplay:10.37,2013-04-27 02:18:00,
2013-04-26 21:20:00,56.0,38.6,30.19,SW,229,8.2,16.1,52,0.00,CLR,,0.00,WeatherDisplay:10.37,2013-04-27 02:20:00,
2013-04-26 21:21:00,56.0,38.1,30.19,SSW,213,9.4,12.4,51,0.00,CLR,,0.00,WeatherDisplay:10.37,2013-04-27 02:21:00,
2013-04-26 21:22:00,56.0,38.1,30.19,SW,232,8.2,12.7,51,0.00,CLR,,0.00,WeatherDisplay:10.37,2013-04-27 02:22:00,
2013-04-26 21:23:00,56.0,38.1,30.19,SSW,213,7.2,12.5,51,0.00,CLR,,0.00,WeatherDisplay:10.37,2013-04-27 02:23:00,
2013-04-26 21:26:00,56.0,38.6,30.19,WSW,239,8.1,13.8,52,0.00,CLR,,0.00,WeatherDisplay:10.37,2013-04-27 02:26:00,
2013-04-26 21:27:00,55.9,38.0,30.19,West,267,6.2,11.5,51,0.00,CLR,,0.00,WeatherDisplay:10.37,2013-04-27 02:27:00,
2013-04-26 21:28:00,55.9,38.5,30.19,SSW,208,7.7,11.5,52,0.00,CLR,,0.00,WeatherDisplay:10.37,2013-04-27 02:28:00,
2013-04-26 21:31:00,55.8,37.9,30.19,SW,224,9.6,12.7,51,0.00,CLR,,0.00,WeatherDisplay:10.37,2013-04-27 02:31:00,
2013-04-26 21:32:00,55.8,37.9,30.19,SSW,199,9.9,15.5,51,0.00,CLR,,0.00,WeatherDisplay:10.37,2013-04-27 02:32:00,
2013-04-26 21:33:00,55.8,38.4,30.19,SW,224,9.3,15.0,52,0.00,CLR,,0.00,WeatherDisplay:10.37,2013-04-27 02:33:00,
2013-04-26 21:36:00,55.7,38.3,30.19,SW,229,9.7,13.8,52,0.00,CLR,,0.00,WeatherDisplay:10.37,2013-04-27 02:36:00,
2013-04-26 21:37:00,55.7,38.3,30.19,SW,236,9.3,13.8,52,0.00,CLR,,0.00,WeatherDisplay:10.37,2013-04-27 02:37:00,
2013-04-26 21:38:00,55.6,38.2,30.19,South,188,11.2,15.0,52,0.00,CLR,,0.00,WeatherDisplay:10.37,2013-04-27 02:38:00,
2013-04-26 21:41:00,55.6,38.2,30.19,SW,217,8.6,9.3,52,0.00,CLR,,0.00,WeatherDisplay:10.37,2013-04-27 02:41:00,
2013-04-26 21:42:00,55.6,38.2,30.19,WSW,241,9.7,15.0,52,0.00,CLR,,0.00,WeatherDisplay:10.37,2013-04-27 02:42:00,
2013-04-26 21:43:00,55.6,38.2,30.19,SW,219,9.3,16.1,52,0.00,CLR,,0.00,WeatherDisplay:10.37,2013-04-27 02:43:00,
2013-04-26 21:46:00,55.4,38.1,30.19,SW,219,8.6,13.8,52,0.00,CLR,,0.00,WeatherDisplay:10.37,2013-04-27 02:46:00,
2013-04-26 21:47:00,55.4,38.1,30.19,SW,230,8.1,12.7,52,0.00,CLR,,0.00,WeatherDisplay:10.37,2013-04-27 02:47:00,
2013-04-26 21:49:00,55.4,38.1,30.19,WSW,240,8.6,13.8,52,0.00,CLR,,0.00,WeatherDisplay:10.37,2013-04-27 02:49:00,
2013-04-26 21:51:00,55.4,38.1,30.20,SSW,208,8.6,11.5,52,0.00,CLR,,0.00,WeatherDisplay:10.37,2013-04-27 02:51:00,
2013-04-26 21:52:00,55.4,38.1,30.20,SW,224,8.8,11.5,52,0.00,CLR,,0.00,WeatherDisplay:10.37,2013-04-27 02:52:00,
2013-04-26 21:53:00,55.3,38.0,30.20,SW,232,10.6,13.8,52,0.00,CLR,,0.00,WeatherDisplay:10.37,2013-04-27 02:53:00,
2013-04-26 21:54:00,55.2,37.9,30.20,WSW,251,9.5,13.8,52,0.00,CLR,,0.00,WeatherDisplay:10.37,2013-04-27 02:54:00,
2013-04-26 21:56:00,55.2,37.9,30.20,SW,224,7.0,11.5,52,0.00,CLR,,0.00,WeatherDisplay:10.37,2013-04-27 02:56:00,
2013-04-26 21:57:00,55.2,37.9,30.20,WSW,237,7.7,10.4,52,0.00,CLR,,0.00,WeatherDisplay:10.37,2013-04-27 02:57:00,
2013-04-26 21:58:00,55.2,37.9,30.20,SSW,209,7.8,11.5,52,0.00,CLR,,0.00,WeatherDisplay:10.37,2013-04-27 02:58:00,
2013-04-26 21:59:00,55.1,37.8,30.20,SW,216,7.5,10.4,52,0.00,CLR,,0.00,WeatherDisplay:10.37,2013-04-27 02:59:00,
2013-04-26 22:02:00,55.1,37.8,30.20,SW,232,6.5,10.4,52,0.00,CLR,,0.00,WeatherDisplay:10.37,2013-04-27 03:02:00,
2013-04-26 22:03:00,55.1,37.8,30.20,SSW,198,7.2,10.4,52,0.00,CLR,,0.00,WeatherDisplay:10.37,2013-04-27 03:03:00,
2013-04-26 22:05:00,55.0,38.2,30.20,SSW,208,5.8,8.1,53,0.00,CLR,,0.00,WeatherDisplay:10.37,2013-04-27 03:05:00,
2013-04-26 22:07:00,55.0,38.2,30.20,SW,223,8.2,12.1,53,0.00,CLR,,0.00,WeatherDisplay:10.37,2013-04-27 03:07:00,
2013-04-26 22:08:00,55.0,38.2,30.20,SW,226,9.1,12.7,53,0.00,CLR,,0.00,WeatherDisplay:10.37,2013-04-27 03:08:00,
2013-04-26 22:09:00,54.9,38.1,30.20,SSW,210,7.6,10.4,53,0.00,CLR,,0.00,WeatherDisplay:10.37,2013-04-27 03:09:00,
2013-04-26 22:10:00,54.8,38.0,30.20,WSW,239,7.9,10.4,53,0.00,CLR,,0.00,WeatherDisplay:10.37,2013-04-27 03:10:00,
2013-04-26 22:12:00,54.7,38.4,30.20,SSW,199,7.0,10.4,54,0.00,CLR,,0.00,WeatherDisplay:10.37,2013-04-27 03:12:00,
2013-04-26 22:13:00,54.7,38.4,30.20,SW,229,7.0,11.5,54,0.00,CLR,,0.00,WeatherDisplay:10.37,2013-04-27 03:13:00,
2013-04-26 22:14:00,54.7,38.4,30.20,SW,217,7.4,11.5,54,0.00,CLR,,0.00,WeatherDisplay:10.37,2013-04-27 03:14:00,
2013-04-26 22:15:00,54.6,38.3,30.20,West,261,9.2,12.7,54,0.00,CLR,,0.00,WeatherDisplay:10.37,2013-04-27 03:15:00,
2013-04-26 22:17:00,54.6,38.3,30.20,West,271,7.3,9.2,54,0.00,CLR,,0.00,WeatherDisplay:10.37,2013-04-27 03:17:00,
2013-04-26 22:18:00,54.6,38.3,30.20,WSW,257,7.2,9.2,54,0.00,CLR,,0.00,WeatherDisplay:10.37,2013-04-27 03:18:00,
2013-04-26 22:19:00,54.5,38.2,30.20,WSW,247,7.2,9.2,54,0.00,CLR,,0.00,WeatherDisplay:10.37,2013-04-27 03:19:00,
2013-04-26 22:20:00,54.5,38.2,30.20,SW,232,7.0,11.5,54,0.00,CLR,,0.00,WeatherDisplay:10.37,2013-04-27 03:20:00,
2013-04-26 22:22:00,54.5,38.7,30.20,SW,232,8.0,12.7,55,0.00,CLR,,0.00,WeatherDisplay:10.37,2013-04-27 03:22:00,
2013-04-26 22:23:00,54.5,38.7,30.20,SW,223,8.0,12.1,55,0.00,CLR,,0.00,WeatherDisplay:10.37,2013-04-27 03:23:00,
2013-04-26 22:24:00,54.4,38.6,30.20,SW,229,6.8,12.7,55,0.00,CLR,,0.00,WeatherDisplay:10.37,2013-04-27 03:24:00,
2013-04-26 22:25:00,54.3,38.5,30.20,SW,220,9.3,13.8,55,0.00,CLR,,0.00,WeatherDisplay:10.37,2013-04-27 03:25:00,
2013-04-26 22:28:00,54.4,38.6,30.20,SW,217,6.9,9.2,55,0.00,CLR,,0.00,WeatherDisplay:10.37,2013-04-27 03:28:00,
2013-04-26 22:30:00,54.3,38.5,30.20,West,271,8.6,16.1,55,0.00,CLR,,0.00,WeatherDisplay:10.37,2013-04-27 03:30:00,
2013-04-26 22:33:00,54.2,38.4,30.20,SSW,205,8.9,12.7,55,0.00,CLR,,0.00,WeatherDisplay:10.37,2013-04-27 03:33:00,
2013-04-26 22:35:00,54.2,38.4,30.20,SSW,208,6.9,11.5,55,0.00,CLR,,0.00,WeatherDisplay:10.37,2013-04-27 03:35:00,
2013-04-26 22:36:00,54.0,38.6,30.20,WSW,246,7.7,10.4,56,0.00,CLR,,0.00,WeatherDisplay:10.37,2013-04-27 03:36:00,
2013-04-26 22:38:00,54.2,38.8,30.20,WSW,243,7.6,10.4,56,0.00,CLR,,0.00,WeatherDisplay:10.37,2013-04-27 03:38:00,
2013-04-26 22:40:00,54.1,38.7,30.20,SW,229,6.4,9.2,56,0.00,CLR,,0.00,WeatherDisplay:10.37,2013-04-27 03:40:00,
2013-04-26 22:41:00,54.1,38.7,30.20,SW,229,6.6,8.1,56,0.00,CLR,,0.00,WeatherDisplay:10.37,2013-04-27 03:41:00,
2013-04-26 22:43:00,53.9,38.6,30.20,SW,229,6.1,10.4,56,0.00,CLR,,0.00,WeatherDisplay:10.37,2013-04-27 03:43:00,
2013-04-26 22:44:00,54.0,38.6,30.20,WSW,240,6.1,10.4,56,0.00,CLR,,0.00,WeatherDisplay:10.37,2013-04-27 03:44:00,
2013-04-26 22:46:00,53.9,38.6,30.20,SW,215,6.0,9.2,56,0.00,CLR,,0.00,WeatherDisplay:10.37,2013-04-27 03:46:00,
2013-04-26 22:49:00,53.8,38.5,30.19,SW,236,6.9,9.2,56,0.00,CLR,,0.00,WeatherDisplay:10.37,2013-04-27 03:49:00,
2013-04-26 22:51:00,53.6,38.7,30.19,SW,223,5.2,10.4,57,0.00,CLR,,0.00,WeatherDisplay:10.37,2013-04-27 03:51:00,
2013-04-26 22:52:00,53.6,38.7,30.19,SW,226,5.1,7.0,57,0.00,CLR,,0.00,WeatherDisplay:10.37,2013-04-27 03:52:00,
2013-04-26 22:54:00,53.5,38.6,30.20,SW,217,5.5,9.5,57,0.00,CLR,,0.00,WeatherDisplay:10.37,2013-04-27 03:54:00,
2013-04-26 22:56:00,53.4,38.5,30.19,SW,217,8.3,13.8,57,0.00,CLR,,0.00,WeatherDisplay:10.37,2013-04-27 03:56:00,
2013-04-26 22:57:00,53.5,38.6,30.19,SW,216,7.5,9.2,57,0.00,CLR,,0.00,WeatherDisplay:10.37,2013-04-27 03:57:00,
2013-04-26 22:59:00,53.4,39.0,30.20,SW,217,7.2,10.4,58,0.00,CLR,,0.00,WeatherDisplay:10.37,2013-04-27 03:59:00,
2013-04-26 23:00:00,53.4,39.0,30.20,SW,223,7.5,10.9,58,0.00,CLR,,0.00,WeatherDisplay:10.37,2013-04-27 04:00:00,
2013-04-26 23:01:00,53.3,38.9,30.20,WNW,288,7.2,11.5,58,0.00,CLR,,0.00,WeatherDisplay:10.37,2013-04-27 04:01:00,
2013-04-26 23:06:00,53.2,38.8,30.20,WSW,254,8.4,11.5,58,0.00,CLR,,0.00,WeatherDisplay:10.37,2013-04-27 04:06:00,
2013-04-26 23:07:00,53.2,38.8,30.20,SSW,196,7.1,10.4,58,0.00,CLR,,0.00,WeatherDisplay:10.37,2013-04-27 04:07:00,
2013-04-26 23:11:00,53.2,38.8,30.20,SW,223,6.2,11.5,58,0.00,CLR,,0.00,WeatherDisplay:10.37,2013-04-27 04:11:00,
2013-04-26 23:12:00,53.2,38.8,30.20,SW,224,6.0,8.1,58,0.00,CLR,,0.00,WeatherDisplay:10.37,2013-04-27 04:12:00,
2013-04-26 23:13:00,53.2,38.8,30.20,WSW,240,6.3,9.2,58,0.00,CLR,,0.00,WeatherDisplay:10.37,2013-04-27 04:13:00,
2013-04-26 23:16:00,53.1,38.7,30.20,SW,232,5.0,11.5,58,0.00,CLR,,0.00,WeatherDisplay:10.37,2013-04-27 04:16:00,
2013-04-26 23:17:00,53.1,38.7,30.20,SW,226,5.3,7.8,58,0.00,CLR,,0.00,WeatherDisplay:10.37,2013-04-27 04:17:00,
2013-04-26 23:18:00,53.0,39.0,30.20,WSW,256,7.3,12.7,59,0.00,CLR,,0.00,WeatherDisplay:10.37,2013-04-27 04:18:00,
2013-04-26 23:21:00,52.9,39.0,30.20,SW,223,9.0,9.0,59,0.00,CLR,,0.00,WeatherDisplay:10.37,2013-04-27 04:21:00,
2013-04-26 23:22:00,53.0,39.0,30.20,SW,219,8.1,13.8,59,0.00,CLR,,0.00,WeatherDisplay:10.37,2013-04-27 04:22:00,
2013-04-26 23:24:00,52.9,39.0,30.20,SW,215,6.9,9.2,59,0.00,CLR,,0.00,WeatherDisplay:10.37,2013-04-27 04:24:00,
2013-04-26 23:27:00,52.9,39.0,30.20,SSW,205,6.6,10.4,59,0.00,CLR,,0.00,WeatherDisplay:10.37,2013-04-27 04:27:00,
2013-04-26 23:29:00,52.8,38.9,30.20,SW,223,9.0,11.5,59,0.00,CLR,,0.00,WeatherDisplay:10.37,2013-04-27 04:29:00,
2013-04-26 23:32:00,52.8,39.3,30.20,SW,223,8.2,10.4,60,0.00,CLR,,0.00,WeatherDisplay:10.37,2013-04-27 04:32:00,
2013-04-26 23:33:00,52.7,38.8,30.20,WSW,248,6.3,12.7,59,0.00,CLR,,0.00,WeatherDisplay:10.37,2013-04-27 04:33:00,
2013-04-26 23:34:00,52.7,39.2,30.20,SW,215,6.6,8.6,60,0.00,CLR,,0.00,WeatherDisplay:10.37,2013-04-27 04:34:00,
2013-04-26 23:37:00,52.6,39.1,30.20,WSW,241,6.3,10.4,60,0.00,CLR,,0.00,WeatherDisplay:10.37,2013-04-27 04:37:00,
2013-04-26 23:38:00,52.7,39.2,30.20,SW,223,6.6,9.2,60,0.00,CLR,,0.00,WeatherDisplay:10.37,2013-04-27 04:38:00,
2013-04-26 23:40:00,52.6,39.1,30.20,SW,229,7.7,11.5,60,0.00,CLR,,0.00,WeatherDisplay:10.37,2013-04-27 04:40:00,
2013-04-26 23:42:00,52.5,39.0,30.20,SW,215,5.9,10.4,60,0.00,CLR,,0.00,WeatherDisplay:10.37,2013-04-27 04:42:00,
2013-04-26 23:43:00,52.5,39.0,30.20,SSW,200,6.2,9.4,60,0.00,CLR,,0.00,WeatherDisplay:10.37,2013-04-27 04:43:00,
2013-04-26 23:45:00,52.3,38.8,30.20,SSW,198,6.3,9.2,60,0.00,CLR,,0.00,WeatherDisplay:10.37,2013-04-27 04:45:00,
2013-04-26 23:47:00,52.3,38.8,30.20,SW,219,6.5,9.2,60,0.00,CLR,,0.00,WeatherDisplay:10.37,2013-04-27 04:47:00,
2013-04-26 23:48:00,52.2,38.7,30.20,WSW,257,5.8,8.1,60,0.00,CLR,,0.00,WeatherDisplay:10.37,2013-04-27 04:48:00,
2013-04-26 23:49:00,52.3,38.8,30.20,SSW,199,6.6,8.1,60,0.00,CLR,,0.00,WeatherDisplay:10.37,2013-04-27 04:49:00,
2013-04-26 23:50:00,52.2,39.1,30.20,SW,232,7.1,10.4,61,0.00,CLR,,0.00,WeatherDisplay:10.37,2013-04-27 04:50:00,
2013-04-26 23:52:00,52.1,39.1,30.21,WSW,237,6.7,9.2,61,0.00,CLR,,0.00,WeatherDisplay:10.37,2013-04-27 04:52:00,
2013-04-26 23:53:00,52.1,39.1,30.21,SSW,209,7.1,10.4,61,0.00,CLR,,0.00,WeatherDisplay:10.37,2013-04-27 04:53:00,
2013-04-26 23:54:00,52.1,39.1,30.20,SW,215,7.1,8.1,61,0.00,CLR,,0.00,WeatherDisplay:10.37,2013-04-27 04:54:00,
2013-04-26 23:55:00,52.1,39.1,30.21,SW,217,6.0,8.1,61,0.00,CLR,,0.00,WeatherDisplay:10.37,2013-04-27 04:55:00,
2013-04-26 23:57:00,52.0,39.0,30.21,SW,227,7.4,10.4,61,0.00,CLR,,0.00,WeatherDisplay:10.37,2013-04-27 04:57:00,
2013-04-26 23:58:00,51.9,38.9,30.21,SW,217,7.4,10.4,61,0.00,CLR,,0.00,WeatherDisplay:10.37,2013-04-27 04:58:00,
2013-04-26 23:59:00,51.9,38.9,30.21,SSW,208,5.9,8.1,61,0.00,CLR,,0.00,WeatherDisplay:10.37,2013-04-27 04:59:00,